GFSNW_250_spd_000.txt.gz
Wind_Speed
38 38 37 35 31 26 21 19 17 17 14 13 12 12 13 13 14 15 15 13 13 14 15 15 13 12 11 15 23 28 29 32 31 30 34 41 48 48 43 40 38 40 36 41
39 39 39 36 31 28 25 21 20 19 20 18 16 15 16 14 14 15 13 12 12 12 14 14 14 13 13 16 20 25 31 37 38 37 42 44 51 51 39 35 38 42 45 47
41 40 39 38 35 32 30 27 24 24 24 23 21 20 20 19 17 16 15 15 14 13 15 14 13 13 13 13 15 21 28 34 37 38 36 30 37 42 42 43 46 47 53 51
45 43 41 38 37 36 32 30 28 27 28 27 25 24 23 24 23 24 23 21 19 18 18 18 19 17 18 18 19 20 22 23 26 31 34 36 43 44 49 53 57 56 58 60
46 44 41 39 38 38 35 34 32 29 31 31 29 28 28 29 26 28 28 29 29 29 25 27 26 26 26 26 27 28 30 32 34 40 43 44 47 49 49 51 53 56 59 64
47 48 46 43 43 43 41 40 38 34 35 35 33 34 35 34 31 30 31 29 30 33 34 33 30 31 30 31 32 34 35 35 39 45 48 50 52 52 55 57 64 65 67 70
50 49 48 46 47 47 45 44 44 42 42 41 39 37 39 36 35 34 32 33 30 31 31 30 32 33 35 33 39 42 42 42 44 44 46 47 62 57 59 63 70 73 73 76
55 54 52 51 51 50 49 49 49 48 47 45 44 43 42 40 37 36 32 36 35 34 34 33 36 36 36 40 44 46 45 47 48 51 50 52 67 63 67 68 70 76 78 82
59 58 57 55 55 54 54 54 54 52 50 48 45 43 44 42 39 36 34 33 36 38 37 36 37 42 45 43 48 51 53 55 57 61 61 61 71 73 74 74 75 79 83 83
56 60 58 56 56 57 55 53 54 53 51 50 49 48 48 45 43 44 41 41 42 41 42 41 39 40 45 49 50 53 58 61 64 66 68 70 77 79 81 82 81 80 83 89
54 54 53 52 54 53 51 50 52 51 55 53 51 50 47 44 43 44 44 45 47 48 49 49 49 49 53 55 59 62 66 68 70 72 74 77 80 85 85 88 84 90 93 101
59 61 63 57 56 59 61 61 52 53 53 51 49 50 50 48 48 48 47 51 54 52 54 56 56 57 57 61 64 69 69 73 74 78 78 86 89 91 92 97 99 100 105 110
70 64 61 60 59 57 57 53 51 51 50 51 50 52 53 56 54 52 53 56 57 57 59 59 61 63 67 69 68 70 74 77 80 84 88 91 93 94 97 101 106 109 115 117
68 68 66 65 61 59 59 59 58 57 57 55 57 57 58 61 61 61 62 61 62 63 64 65 68 71 71 69 74 75 82 84 90 93 94 94 97 99 102 108 115 118 120 123
74 71 73 72 67 65 64 64 62 61 62 58 60 64 67 69 67 66 65 66 68 71 72 74 76 79 85 80 78 83 89 93 97 98 101 102 100 104 108 114 117 119 126 132
80 78 77 76 73 71 69 67 69 70 72 69 66 63 67 70 70 70 70 71 74 77 79 81 81 84 88 86 84 85 94 99 103 104 105 107 111 115 119 120 123 128 132 141
86 84 81 80 78 77 75 70 70 75 76 74 69 66 65 72 75 76 77 79 80 81 84 81 83 86 92 93 92 100 103 106 106 109 112 116 120 121 126 129 133 137 140 143
93 90 87 87 85 82 79 79 80 83 85 84 76 71 72 74 78 83 85 87 89 86 88 89 92 92 98 101 106 105 109 112 116 120 120 122 123 126 129 132 139 140 144 142
98 95 95 93 92 92 91 90 90 90 92 90 79 78 78 80 82 87 90 94 96 96 97 102 102 98 105 114 115 115 118 121 121 122 123 126 127 132 137 139 143 145 141 138
106 102 98 96 96 99 99 99 97 98 96 97 91 88 91 93 94 97 101 103 105 106 102 104 104 105 113 119 121 123 126 124 126 130 131 132 135 138 140 143 140 137 132 127
111 109 104 100 101 103 104 104 103 103 102 100 99 103 106 104 105 108 110 110 111 108 108 111 111 114 122 126 129 133 130 132 133 133 135 138 139 137 139 138 133 127 120 114
113 113 112 113 112 110 110 109 107 106 110 110 111 114 116 115 117 116 117 117 117 119 119 121 124 125 132 132 131 130 132 136 134 133 133 133 138 134 129 125 117 110 108 109
118 119 120 120 120 117 119 117 116 117 117 118 119 119 120 120 122 124 124 123 123 121 125 129 132 136 138 138 137 133 133 132 130 130 130 126 122 118 115 110 106 103 103 102
133 130 125 123 123 124 123 123 125 126 125 125 128 127 127 125 126 125 125 127 129 132 134 139 141 142 144 140 139 140 132 128 126 122 119 114 109 105 103 104 101 96 93 88
128 129 134 134 129 129 130 130 131 129 130 132 132 133 131 129 129 130 130 135 141 145 150 147 146 140 135 133 128 124 121 115 112 108 103 100 102 101 96 95 89 83 82 78
113 115 121 121 122 131 133 137 137 135 134 134 135 135 136 137 137 137 142 147 150 145 139 134 130 130 128 124 118 112 108 103 97 95 96 96 95 91 86 84 82 77 76 75
116 124 122 124 127 126 125 130 135 136 139 141 144 144 146 145 147 149 144 133 125 120 119 119 121 117 111 109 105 102 99 97 95 95 94 91 86 82 78 75 74 72 71 68

GFSNW_250_spd_003.txt.gz
Wind_Speed
43 38 33 33 35 31 28 24 22 21 20 17 16 15 14 13 12 12 13 14 13 13 15 15 16 14 10 10 13 15 25 30 29 31 34 36 37 41 44 41 38 37 36 42
50 43 37 37 38 35 31 28 24 23 23 21 20 18 17 17 16 12 11 12 12 14 14 16 16 16 12 11 12 13 18 22 27 30 35 39 40 38 33 35 40 44 46 49
50 44 41 41 40 38 35 33 27 26 24 24 24 22 21 20 18 18 16 15 17 18 17 17 17 17 17 16 15 17 20 20 21 22 24 30 36 37 40 44 46 46 52 48
48 45 45 45 43 40 38 35 33 29 28 27 27 26 25 25 23 23 22 22 24 25 25 26 24 24 24 25 24 23 26 28 29 31 33 36 42 44 50 50 49 47 51 56
49 47 46 46 47 45 42 38 37 35 32 30 30 28 28 29 29 29 27 26 28 29 30 32 32 33 33 33 33 31 32 31 32 37 38 40 48 47 48 49 52 54 58 63
52 49 48 48 48 48 46 44 41 39 36 34 32 31 33 33 32 33 34 32 32 32 31 34 34 32 30 33 35 34 34 32 35 42 45 46 51 50 51 55 59 61 64 69
55 52 52 50 49 49 48 46 44 42 39 38 37 37 35 35 36 37 36 36 35 35 34 33 34 34 33 35 35 38 39 39 43 45 46 48 61 55 57 59 63 69 70 73
57 55 53 52 51 51 50 50 47 45 45 45 44 42 42 40 40 42 43 41 41 39 38 38 37 37 36 36 39 41 43 47 47 50 49 50 65 63 65 67 67 74 74 83
61 59 56 54 53 53 52 52 51 50 48 48 47 47 45 46 45 45 45 43 41 39 38 38 38 38 40 42 45 49 48 50 52 55 56 59 69 70 72 75 73 76 86 89
64 62 60 57 55 55 55 55 55 54 53 52 49 48 49 49 48 47 45 44 44 45 44 45 45 45 45 46 49 51 55 56 58 61 65 65 72 74 77 79 82 84 91 96
63 63 63 61 59 58 57 57 58 56 54 54 54 55 54 52 51 49 47 47 48 45 46 46 47 47 50 49 52 56 59 60 64 67 72 76 79 78 81 85 87 93 97 102
66 65 65 64 63 64 64 63 61 61 59 58 58 57 56 54 51 50 50 49 48 48 49 50 50 51 53 55 54 62 63 70 70 77 77 82 82 85 88 92 94 99 104 107
64 61 65 66 68 66 63 64 62 60 61 60 59 55 53 53 53 55 51 52 51 53 53 53 57 60 60 60 60 64 69 77 74 77 80 84 87 91 94 97 101 104 107 114
65 65 65 66 63 61 61 64 64 63 62 59 57 56 56 56 55 56 57 58 58 60 61 62 64 62 63 63 64 67 74 75 80 81 83 88 95 97 97 102 107 113 118 124
67 67 69 69 68 70 70 68 63 64 64 58 58 57 62 60 60 60 60 60 60 65 65 65 65 68 69 65 68 75 82 83 87 86 93 97 98 102 107 112 114 121 125 130
77 72 72 74 71 72 69 64 65 67 69 63 60 59 64 66 68 68 68 69 68 67 66 66 70 77 80 77 77 82 89 90 92 95 100 105 109 110 112 117 126 131 133 134
81 82 80 78 76 73 71 70 72 74 75 72 68 65 65 71 74 75 77 76 75 74 74 73 77 81 85 84 83 92 92 96 100 106 106 109 111 117 123 128 130 132 134 139
86 84 84 85 83 80 77 76 76 78 80 78 71 70 69 72 75 82 84 86 86 84 84 83 85 86 91 92 98 99 104 107 111 113 115 118 122 124 125 131 133 138 145 149
92 91 87 86 87 86 83 85 86 86 86 82 78 76 77 79 83 85 89 92 94 93 93 95 96 97 101 109 108 111 113 116 120 122 124 128 129 129 132 137 145 152 151 152
97 96 94 93 91 88 89 92 92 92 91 90 86 86 88 91 92 94 96 97 98 98 97 102 104 104 111 116 118 121 123 124 127 129 130 130 135 135 138 146 153 151 146 137
101 101 100 100 98 100 99 99 95 93 93 93 95 98 100 102 104 104 104 106 107 108 108 111 111 112 117 120 122 125 126 130 129 132 133 135 139 142 146 149 145 140 130 119
109 107 107 107 106 106 106 102 99 99 100 100 105 105 105 105 106 110 112 113 114 117 117 120 122 126 129 131 134 134 133 134 135 138 139 140 148 148 147 139 128 117 112 105
117 114 114 112 112 113 111 109 107 109 108 109 114 114 114 114 114 115 118 119 123 124 125 129 133 134 132 134 134 137 139 140 140 141 146 151 148 139 127 116 109 103 104 103
119 119 120 121 118 117 113 114 119 118 116 115 115 115 116 118 119 121 124 127 129 130 130 136 138 139 140 143 145 146 148 149 149 151 144 132 118 113 107 105 105 102 99 94
118 118 121 119 117 118 121 120 122 122 121 121 120 120 123 124 126 126 129 135 138 141 146 145 145 147 147 149 152 152 150 147 140 127 115 109 105 103 101 102 100 95 88 82
123 122 122 123 124 124 125 124 128 129 129 129 130 132 132 133 136 136 132 132 136 139 137 137 140 141 141 140 138 131 123 115 108 104 101 98 99 98 96 94 89 82 77 75
122 120 121 124 126 126 125 128 132 129 129 133 135 130 131 130 127 122 125 127 124 126 128 127 127 125 124 118 111 107 103 99 98 97 96 95 94 91 87 81 77 73 70 68

GFSNW_250_spd_006.txt.gz
Wind_Speed
43 37 34 28 27 24 31 31 27 23 20 20 19 17 18 15 15 14 11 12 12 12 13 14 14 12 12 11 13 11 11 14 19 27 30 32 35 36 37 39 39 38 37 45
47 43 38 35 30 28 32 31 28 25 24 23 21 20 18 18 19 17 14 13 15 14 16 18 19 16 15 14 15 16 15 12 11 15 20 23 27 29 28 31 36 41 45 45
49 41 41 41 35 32 35 33 30 26 26 25 24 23 23 22 21 20 19 18 17 17 21 22 22 22 21 22 22 23 24 24 23 24 29 32 33 33 34 36 39 41 46 42
54 44 49 43 40 36 39 36 34 30 28 26 26 26 26 24 25 25 24 22 22 24 26 28 30 29 30 31 30 32 34 33 31 33 34 34 37 38 40 40 44 42 46 52
54 53 50 50 44 41 41 42 39 35 32 29 29 30 29 29 30 29 28 29 29 29 30 31 33 33 32 31 31 32 31 30 31 35 34 36 43 46 45 45 49 50 53 57
59 56 58 54 50 45 43 44 43 40 39 36 34 33 33 32 32 32 32 32 33 34 35 35 36 35 34 34 33 34 35 34 32 36 38 42 51 52 45 48 55 57 58 62
56 58 58 59 53 50 49 47 48 46 44 42 42 39 38 37 34 34 34 35 36 37 38 37 38 40 39 36 38 38 37 35 34 36 39 40 57 53 49 52 58 64 65 68
58 57 59 59 54 51 51 51 53 51 49 48 46 44 43 40 39 39 41 41 41 43 43 41 40 41 39 38 40 43 43 43 41 43 44 44 54 55 55 58 62 69 72 75
60 60 58 56 56 54 53 53 54 55 54 51 48 48 46 44 44 45 45 45 46 46 46 44 41 41 44 46 48 48 50 49 49 50 52 51 59 60 61 63 65 70 77 83
64 65 62 61 60 58 56 56 54 54 54 53 51 50 50 49 49 49 49 49 50 49 47 43 42 43 48 49 50 50 50 51 54 57 57 56 61 64 66 69 72 77 81 87
64 65 64 63 63 61 59 57 57 56 55 55 53 53 53 54 54 53 53 53 54 49 46 44 45 46 47 50 53 56 56 58 62 60 63 64 66 69 74 78 81 85 87 91
65 66 66 66 66 64 62 60 58 57 57 57 57 56 55 55 56 57 58 55 49 44 47 48 47 50 51 51 53 62 63 68 64 67 67 72 72 77 82 85 87 91 96 100
65 66 68 69 68 67 65 64 63 61 60 59 57 58 58 58 60 59 56 55 55 52 50 51 52 54 57 58 58 61 68 71 70 69 73 77 82 85 88 92 97 102 107 108
64 66 65 66 68 68 67 66 64 64 64 63 63 63 64 62 61 60 55 55 57 54 53 56 60 62 61 62 65 67 75 75 75 75 79 83 87 92 97 100 103 108 112 118
66 63 62 63 64 66 66 67 66 65 65 63 64 64 61 60 62 63 63 62 61 59 59 61 66 70 72 68 71 75 81 81 82 85 90 93 93 97 100 104 108 114 119 124
70 68 64 61 59 60 61 61 62 62 63 59 62 62 65 64 62 63 66 65 66 67 67 67 70 75 75 75 75 81 85 86 89 92 94 96 101 106 109 115 120 123 129 131
73 71 67 68 68 66 66 65 65 66 66 67 66 63 63 67 69 73 72 73 74 74 74 74 76 79 81 82 83 90 91 95 98 100 102 106 110 115 119 124 126 129 134 135
81 78 77 76 73 71 69 69 71 72 73 67 64 64 63 66 72 76 78 79 79 77 80 81 84 86 89 91 95 99 101 102 104 107 112 115 120 124 127 129 133 138 142 144
89 87 85 85 83 80 78 81 82 81 80 77 72 70 71 71 77 83 87 87 88 88 87 89 91 92 96 98 102 104 107 111 114 117 121 124 125 130 134 137 141 146 148 149
95 94 94 91 86 84 85 87 88 89 84 82 79 79 81 81 83 86 88 86 89 90 90 95 96 97 104 108 112 111 114 118 120 124 127 131 135 139 137 141 141 143 134 127
99 99 99 94 93 95 95 96 94 90 85 83 83 85 90 90 91 93 94 94 96 96 98 102 102 105 111 116 118 115 121 125 128 128 132 138 142 139 137 136 138 128 121 115
104 101 100 99 98 101 101 100 99 95 92 90 94 97 97 97 98 101 101 102 103 104 105 109 112 117 120 120 122 125 126 129 133 137 137 135 135 134 132 126 114 108 106 106
107 109 108 105 106 106 103 100 98 101 103 102 102 103 104 103 105 107 109 110 112 114 116 119 120 123 121 123 123 127 130 133 133 133 134 135 128 124 116 107 106 106 104 104
114 110 110 110 109 107 105 106 107 107 108 108 109 109 108 108 111 111 114 118 119 121 122 126 126 125 127 129 135 133 134 130 130 126 127 124 113 107 109 109 105 104 102 98
110 111 114 110 109 112 114 113 111 113 114 113 113 113 112 113 115 118 119 121 126 126 127 127 127 130 133 136 132 131 125 123 124 119 113 110 107 104 104 105 105 102 96 91
109 110 112 111 113 114 115 115 115 116 116 116 116 116 117 116 117 117 121 126 129 126 125 127 131 130 131 132 129 121 118 116 113 108 104 103 103 102 101 100 97 93 85 79
110 112 116 113 112 118 120 118 116 114 115 116 119 120 121 122 123 124 126 128 126 126 125 124 122 121 116 111 109 108 110 110 108 103 101 101 101 98 94 89 86 80 72 70

GFSNW_250_spd_009.txt.gz
Wind_Speed
40 38 33 28 25 24 27 32 30 24 21 21 22 19 17 16 15 12 9 8 10 11 11 11 11 12 12 10 10 11 11 13 13 13 13 16 21 26 30 30 27 30 31 39
42 43 36 29 27 25 26 27 33 29 25 24 23 20 20 19 16 13 12 13 13 12 13 14 14 15 16 18 19 19 19 20 19 20 21 22 24 27 28 28 29 33 37 41
49 45 39 35 32 30 26 27 32 31 28 27 24 22 22 20 17 17 17 17 17 17 18 18 20 22 22 23 26 28 29 28 29 31 30 30 32 29 28 31 31 32 45 38
48 50 44 39 35 34 30 29 32 32 30 29 27 26 24 21 19 20 20 21 21 22 22 23 24 26 28 30 28 29 30 30 29 28 28 30 33 35 32 33 37 39 41 43
54 49 48 45 39 39 36 33 34 34 33 31 29 27 25 24 24 25 25 26 27 27 28 29 30 32 33 33 33 32 32 29 31 34 31 32 38 37 38 37 41 44 47 50
57 58 53 49 44 45 43 38 36 38 37 35 32 30 29 29 29 29 30 31 31 32 32 32 34 34 35 35 35 36 36 31 29 33 33 38 44 42 44 45 49 50 52 57
58 60 58 53 49 44 45 43 39 40 41 40 38 37 35 34 34 33 33 34 34 34 34 35 37 38 39 40 39 39 39 34 31 35 36 39 47 42 44 49 54 56 57 60
62 64 63 58 58 51 48 48 45 42 45 45 45 43 41 41 41 40 39 38 40 40 39 40 42 42 44 44 43 41 42 39 40 38 37 39 50 49 53 54 58 61 64 68
63 64 65 62 57 53 53 53 51 49 48 48 47 47 46 46 47 46 44 45 46 46 45 45 44 45 46 44 44 45 46 45 45 42 43 46 51 54 58 60 65 69 71 73
66 65 65 64 63 61 59 57 54 54 52 52 50 51 52 52 50 50 49 50 51 51 50 48 47 48 48 47 47 48 50 49 50 48 50 54 59 61 65 71 70 72 75 81
65 64 64 63 59 56 58 60 59 56 55 54 52 53 54 55 54 54 54 54 54 54 54 51 52 49 45 47 49 53 54 51 52 54 61 63 66 67 73 73 74 79 83 88
57 61 64 63 62 60 59 59 58 58 58 57 56 53 53 52 53 55 56 57 58 55 54 54 53 48 47 49 52 58 58 59 58 60 67 70 72 74 73 76 79 86 90 92
56 58 59 60 60 60 60 61 61 61 61 61 58 56 55 56 55 56 57 57 56 57 59 57 54 51 52 52 51 56 64 66 64 65 73 74 76 78 80 86 89 91 97 104
56 58 59 60 62 61 63 65 66 64 64 63 62 61 58 58 59 59 59 61 61 62 60 58 56 57 57 56 59 63 71 69 70 73 77 77 82 85 87 90 96 102 106 110
60 58 59 59 62 64 65 65 66 67 68 66 66 63 62 61 61 61 63 63 61 61 60 58 59 60 61 60 64 70 75 75 76 77 81 83 86 90 96 100 107 107 110 115
60 59 60 61 60 61 63 64 65 68 69 68 68 65 63 63 65 62 62 64 65 62 62 62 63 67 69 67 68 74 78 80 80 80 84 89 94 98 104 110 111 112 117 119
67 64 64 64 62 62 62 62 64 66 66 65 62 61 61 63 63 64 67 66 65 64 63 64 67 72 73 73 75 80 82 84 86 89 94 97 103 108 109 112 117 119 125 129
75 72 70 68 67 66 64 63 65 68 68 65 58 57 58 64 69 72 71 70 70 66 70 71 74 75 79 81 84 88 88 91 95 98 102 106 109 112 117 121 124 127 126 128
81 80 77 76 73 69 68 71 71 71 70 66 62 62 64 68 71 75 77 79 79 77 78 81 83 85 89 90 92 92 96 100 104 105 108 110 116 123 125 128 130 126 123 125
87 85 86 82 78 78 79 80 78 75 74 70 68 69 73 75 78 80 83 84 84 82 83 86 86 88 92 95 96 99 102 105 108 112 116 120 122 124 125 129 128 124 122 120
93 92 89 86 87 88 88 89 89 84 80 78 78 80 83 86 87 88 89 89 89 88 88 91 92 94 100 102 104 106 110 112 117 121 123 124 124 124 124 120 121 120 115 114
96 95 94 95 93 94 95 92 90 88 86 87 89 91 91 92 94 94 94 96 97 97 97 98 98 102 105 108 112 115 115 118 120 120 123 123 126 123 118 117 112 109 109 111
102 103 100 99 99 98 96 92 89 91 92 95 97 98 98 97 99 100 101 102 103 104 104 105 108 111 112 116 116 116 116 118 117 122 124 122 116 112 113 113 109 107 107 106
105 105 104 103 104 102 98 98 97 95 97 99 100 101 102 102 105 105 108 108 108 111 112 114 115 116 118 117 119 117 119 121 123 124 116 113 108 108 110 111 109 106 105 101
109 108 107 103 102 101 100 99 99 101 105 104 106 108 108 109 111 110 110 113 116 118 120 118 117 116 116 120 122 123 124 122 119 116 112 107 104 105 104 106 106 104 100 95
106 105 108 109 107 107 106 108 107 103 105 106 107 108 111 112 113 112 113 117 118 118 117 115 116 119 123 122 121 122 119 116 113 110 105 104 103 101 100 100 100 96 93 87
108 105 106 108 106 105 105 105 109 109 107 107 110 109 110 110 111 112 115 117 117 115 114 113 118 118 116 116 116 115 111 109 109 105 102 100 98 96 94 93 91 89 85 79

GFSNW_250_spd_015.txt.gz
Wind_Speed
48 46 46 44 40 39 36 35 34 31 30 29 28 26 22 16 15 15 13 13 12 9 8 7 7 7 6 6 7 9 11 14 17 20 21 21 21 22 23 25 29 33 34 40
52 48 46 43 43 39 37 38 34 31 30 28 28 26 24 19 15 15 14 14 14 11 10 8 8 9 9 11 13 15 18 20 23 25 26 26 26 26 25 26 29 32 33 36
54 50 47 42 40 37 38 39 35 31 30 29 29 27 24 20 17 17 16 17 16 15 14 12 12 13 15 16 17 20 22 25 27 29 30 30 29 30 32 33 35 34 37 37
56 52 47 43 40 38 38 40 38 34 32 30 29 26 24 22 21 20 20 20 20 19 18 16 16 18 20 21 22 23 25 27 29 32 34 36 36 34 35 37 37 37 40 44
59 54 51 45 40 35 38 41 41 37 33 30 28 27 25 24 24 24 23 23 23 23 21 19 20 22 23 25 26 28 28 29 34 40 41 43 44 41 40 39 38 41 44 46
62 56 49 46 43 39 36 40 38 35 34 34 33 30 27 26 27 26 26 26 26 25 24 24 25 26 28 29 31 31 32 34 36 40 42 46 44 42 40 42 39 45 46 48
63 59 55 53 47 44 39 36 37 40 33 29 32 33 33 31 31 30 30 29 29 28 28 29 30 32 33 34 36 37 38 40 41 42 42 47 43 43 45 46 45 45 46 49
68 61 61 57 53 45 43 39 37 36 33 32 28 30 34 34 34 34 33 32 33 33 34 35 36 38 40 41 43 44 44 44 45 46 44 46 46 46 48 48 47 47 51 53
68 64 63 59 56 54 51 46 40 37 39 34 33 34 32 32 36 37 38 37 39 39 41 43 44 45 46 46 47 49 50 51 50 50 47 49 45 44 47 46 48 50 57 61
65 64 61 61 58 55 54 51 47 43 41 40 39 38 38 37 35 36 38 42 45 46 48 49 52 53 54 53 53 54 52 54 54 51 52 50 48 50 52 52 53 58 64 68
67 66 64 65 60 60 58 55 54 51 47 48 45 42 41 40 41 42 43 43 45 46 47 50 51 54 54 54 54 53 55 55 57 56 59 54 52 52 54 58 61 64 68 74
65 64 65 66 68 64 62 58 58 58 53 53 52 51 48 48 49 49 50 50 50 49 53 54 55 55 54 54 55 57 61 60 61 61 64 62 59 58 61 63 66 71 76 79
67 68 66 66 68 68 68 67 65 65 62 58 56 55 58 56 57 58 58 59 59 58 60 60 60 59 59 58 58 61 67 64 63 63 67 63 66 66 66 70 75 79 83 87
65 66 67 67 66 64 64 62 64 64 64 64 62 62 62 63 65 65 64 65 66 67 67 64 63 63 61 61 63 65 75 72 67 65 67 66 71 70 73 77 82 86 91 94
57 63 70 69 66 67 68 67 65 66 64 62 65 65 65 68 68 70 69 69 67 64 64 64 64 64 67 61 62 70 76 73 69 67 68 71 73 77 80 85 88 93 97 101
57 56 55 59 68 72 72 72 70 70 68 67 69 67 68 69 69 71 71 69 67 66 64 63 65 68 70 63 64 69 72 73 72 72 72 75 77 82 86 92 96 99 102 106
62 61 60 57 55 54 57 61 67 70 74 77 75 72 71 72 70 69 68 69 66 66 64 63 67 68 67 63 64 72 71 72 74 77 81 82 85 91 94 96 98 102 107 111
67 66 63 62 59 56 55 56 59 59 58 59 57 56 63 67 65 65 66 66 66 64 62 62 67 67 67 63 72 73 75 76 79 82 85 89 92 93 96 100 103 107 111 115
73 73 71 68 64 60 62 64 64 64 61 56 51 53 59 62 65 66 66 67 68 66 67 69 67 63 67 75 76 78 80 81 83 86 89 92 95 98 103 106 108 112 117 121
77 77 77 73 69 70 74 71 70 68 66 61 60 62 64 66 69 73 76 77 77 72 68 70 67 66 75 83 83 84 86 88 90 92 94 97 101 104 107 109 113 119 122 123
85 85 82 79 80 82 82 79 76 75 72 68 67 67 70 72 74 76 78 78 78 75 71 75 73 73 84 86 88 91 92 92 95 96 98 101 103 106 110 115 119 122 120 121
88 89 87 86 89 88 89 87 84 80 78 74 73 75 78 77 79 81 82 83 84 83 80 83 82 85 91 92 94 95 96 99 101 102 102 105 109 112 115 118 120 119 121 123
92 91 94 95 92 93 96 94 89 86 82 81 83 84 85 85 86 87 88 90 92 91 90 89 92 95 96 96 98 101 104 104 104 105 109 112 115 118 118 118 119 118 121 119
95 95 96 98 100 101 99 96 95 93 91 87 86 88 89 91 93 95 97 98 98 99 97 98 100 100 100 101 104 107 108 108 112 114 116 118 118 118 117 117 117 116 115 112
94 96 99 100 101 100 98 97 96 97 97 95 93 94 95 96 98 100 101 102 103 102 102 104 105 105 107 110 112 113 114 115 116 116 115 116 116 115 115 116 117 112 109 107
95 96 97 98 97 100 104 106 103 103 103 103 101 101 101 102 102 103 104 103 103 105 108 109 110 111 114 115 115 116 115 114 114 113 114 115 114 115 114 112 108 107 104 99
98 100 99 100 101 101 102 104 105 104 104 105 105 105 105 104 105 107 108 108 109 109 108 110 112 113 112 112 113 113 112 113 112 112 114 114 112 109 106 103 101 98 95 93

GFSNW_250_spd_021.txt.gz
Wind_Speed
57 48 39 45 35 40 38 37 34 33 30 28 26 27 25 22 20 18 18 18 16 14 11 9 11 10 10 9 7 6 6 7 9 11 13 14 15 16 22 26 26 28 31 42
56 46 40 46 39 38 37 38 35 34 30 27 27 28 25 22 19 18 18 17 16 14 12 11 13 12 12 11 11 11 11 11 14 16 18 18 19 23 26 31 35 39 36 41
56 48 42 44 42 39 40 38 37 35 30 29 26 26 26 23 19 19 19 18 16 13 12 13 12 12 12 13 14 14 14 15 16 18 20 22 25 27 29 31 34 37 41 40
56 48 43 45 42 44 40 41 39 38 34 31 28 28 28 26 21 18 20 19 17 16 14 15 15 15 15 15 16 16 17 18 19 21 23 26 31 33 36 38 39 40 44 44
55 50 45 46 41 45 44 41 38 36 34 28 26 28 30 28 25 22 19 18 17 17 19 20 20 18 17 17 19 20 21 23 25 26 29 33 38 39 42 44 46 46 46 49
57 49 48 41 46 46 43 39 37 36 36 31 30 31 30 30 28 24 22 18 19 22 19 20 22 20 20 20 22 24 25 28 31 33 37 41 44 48 49 50 51 50 48 50
61 52 49 44 46 45 43 43 41 36 34 32 32 31 31 31 28 24 22 24 23 22 19 21 20 21 21 24 25 29 30 33 35 39 42 44 43 46 50 52 53 56 55 54
60 53 50 46 47 47 49 40 37 37 34 33 32 31 32 29 26 26 27 27 24 23 24 25 25 26 26 29 29 32 35 37 39 41 43 48 49 52 56 56 58 61 62 62
61 55 52 51 48 50 45 42 40 35 34 36 35 35 30 30 27 28 26 28 29 31 31 29 30 30 30 31 34 34 35 37 43 47 50 54 54 57 62 60 61 62 65 67
65 57 55 51 47 52 46 43 41 34 32 32 34 34 34 33 30 29 28 26 24 26 24 26 27 30 29 30 36 40 42 46 51 53 56 58 61 58 56 59 61 63 64 66
65 62 59 55 51 50 51 46 44 40 34 31 31 32 33 33 29 29 28 26 26 26 27 31 34 36 40 42 45 49 51 55 59 61 63 62 60 58 59 64 65 65 65 65
62 63 62 60 58 52 51 51 47 46 41 36 32 32 33 35 33 33 33 31 33 32 37 39 41 42 45 48 52 55 57 62 65 67 67 69 63 63 63 65 67 68 67 67
61 61 60 62 60 58 56 53 54 52 48 46 42 41 39 36 35 39 40 39 39 40 44 46 47 49 52 55 58 62 64 67 70 70 71 74 70 65 64 67 69 69 69 70
60 59 63 61 63 62 62 58 56 55 55 53 52 53 49 48 48 47 50 51 48 49 51 51 48 51 54 56 61 64 70 75 76 73 76 78 73 69 69 70 72 72 74 77
61 58 57 62 63 63 64 63 61 59 55 55 55 55 54 53 52 53 51 51 53 52 56 57 61 63 66 63 66 69 74 77 78 77 80 79 73 73 75 76 76 78 80 82
58 57 58 57 60 61 60 62 64 63 61 61 61 59 58 60 60 60 60 60 62 65 66 67 67 69 68 65 66 70 78 82 82 82 77 73 74 76 79 80 82 85 87 90
56 57 58 59 57 59 58 59 62 64 64 62 63 62 61 61 60 66 67 66 69 70 69 68 67 69 70 66 67 77 82 84 82 77 74 75 79 81 83 85 87 91 93 97
55 54 55 58 60 58 56 61 63 62 61 60 58 58 62 64 64 64 67 70 70 69 68 68 72 72 73 70 76 80 83 79 75 76 77 80 83 86 87 90 93 96 100 103
57 56 54 53 55 59 63 64 63 61 59 56 54 59 62 65 67 68 69 72 73 73 74 75 74 70 71 76 74 72 74 74 78 82 82 84 88 89 92 96 99 103 105 108
62 59 56 56 58 60 61 62 63 63 62 58 60 63 64 68 71 74 76 78 78 75 75 77 72 66 71 76 76 78 79 79 80 84 87 90 93 96 99 101 104 106 109 113
68 65 63 61 63 63 63 60 58 58 58 57 60 65 68 72 74 77 79 76 75 73 71 74 71 70 76 79 81 83 83 85 88 90 93 95 97 100 104 106 109 112 115 119
74 71 70 70 70 70 68 64 62 60 59 56 60 65 67 69 72 75 75 76 78 77 77 79 77 78 80 83 84 85 89 93 95 97 99 102 104 107 111 113 116 118 121 124
80 82 79 79 79 80 77 72 70 70 69 69 70 72 74 76 78 80 81 82 82 83 83 83 84 87 88 88 90 94 96 100 103 106 108 109 111 115 117 119 121 123 126 119
89 86 85 87 88 88 84 81 81 80 80 79 79 82 83 82 85 87 90 91 91 90 89 90 93 95 95 97 99 102 104 106 108 110 113 116 120 122 123 125 124 115 113 114
93 93 93 94 93 92 93 94 93 92 90 88 89 91 92 94 96 95 97 99 102 103 103 103 103 104 105 107 108 109 111 113 116 118 120 121 121 122 118 114 113 110 109 109
93 99 99 100 99 100 101 101 100 100 101 101 101 101 102 102 101 102 104 108 111 112 112 112 113 114 116 117 117 119 118 117 118 118 116 113 111 110 108 108 107 107 105 101
87 88 94 97 99 100 102 104 105 108 107 105 104 108 111 112 112 114 113 113 113 114 116 119 120 120 120 121 121 119 118 113 110 110 108 106 105 105 106 104 102 98 98 96

GFSNW_250_spd_024.txt.gz
Wind_Speed
40 46 51 51 45 42 40 38 38 38 37 35 33 29 28 26 24 21 21 21 19 17 13 10 12 14 15 13 12 11 10 9 8 9 11 13 15 17 19 21 23 28 34 34
46 54 55 48 44 43 42 40 39 38 37 34 32 30 28 25 22 20 20 20 18 15 13 13 15 14 13 14 12 12 12 13 13 14 14 14 14 18 23 27 32 33 37 39
53 61 52 48 46 44 42 40 39 38 35 34 31 30 28 25 22 20 20 20 17 16 15 14 14 13 13 14 15 15 16 17 17 17 17 18 18 20 26 29 33 38 40 44
60 62 50 47 45 43 42 40 42 40 36 35 33 31 29 26 23 21 20 19 18 18 17 17 15 15 15 14 14 16 17 18 18 18 19 22 25 29 32 35 37 40 44 46
64 59 49 48 45 42 42 42 41 40 36 31 30 29 28 26 23 20 18 18 21 23 22 19 17 15 15 15 16 17 18 19 19 21 23 26 31 35 37 38 44 45 47 52
63 58 46 46 47 42 41 43 41 38 36 33 30 27 26 28 26 23 20 22 23 22 19 17 17 18 17 19 19 19 20 21 23 25 27 30 34 36 40 44 50 50 56 60
63 58 50 48 47 43 45 46 41 39 37 35 33 27 24 27 28 27 24 25 21 17 18 18 16 18 19 19 21 22 24 24 26 29 30 30 35 41 45 48 54 55 57 58
63 59 52 49 43 45 49 45 44 41 39 35 32 24 28 30 29 29 26 23 22 22 22 21 20 21 22 23 26 27 26 27 29 30 33 36 40 45 49 53 58 60 60 62
61 61 53 53 46 46 48 46 44 39 34 30 31 28 30 31 30 28 27 25 26 25 24 24 25 25 25 26 29 31 29 28 32 39 41 44 48 52 54 59 63 64 67 68
65 61 53 53 47 47 48 47 45 40 37 34 32 28 31 32 33 30 29 28 27 27 28 26 24 20 21 24 27 31 35 38 42 46 48 50 52 56 59 64 66 66 71 70
66 63 54 51 48 43 48 49 45 42 40 34 30 28 30 34 36 33 31 30 30 28 22 22 24 25 27 29 34 38 41 45 50 54 57 56 60 61 65 68 68 71 75 70
64 64 58 51 49 46 45 48 46 44 40 34 30 28 30 31 37 39 34 33 32 29 30 31 32 31 34 37 38 45 48 54 57 59 61 64 66 67 69 70 72 76 76 71
56 66 64 54 51 50 46 49 50 44 41 38 34 34 29 30 33 35 36 37 36 36 38 39 38 40 42 43 46 50 50 54 58 64 68 71 70 70 74 73 76 78 75 72
52 65 65 60 55 51 48 44 45 51 47 43 41 41 39 35 35 36 35 38 39 41 43 43 44 48 50 53 53 55 60 64 68 69 72 70 72 74 76 78 79 79 74 73
54 58 66 64 59 56 53 51 49 50 50 50 51 49 48 46 45 47 48 49 51 51 52 54 55 57 58 57 58 61 68 73 74 72 73 74 75 77 78 80 80 77 77 79
53 56 57 60 65 61 58 55 54 55 53 53 54 53 53 52 53 54 56 58 58 57 58 58 60 64 63 59 60 67 77 78 75 73 77 79 79 78 81 79 78 81 84 86
51 53 54 54 52 56 57 57 59 58 58 59 58 56 56 57 59 60 62 62 63 63 63 64 66 70 71 67 64 77 76 75 77 81 83 80 81 83 83 84 84 87 88 91
54 53 53 54 54 55 55 55 57 59 60 60 59 60 65 66 65 65 66 67 69 69 69 69 71 71 70 64 73 73 75 79 82 82 81 83 82 82 85 86 88 90 92 97
56 54 54 54 55 56 55 55 57 56 55 56 57 58 60 62 67 70 72 74 74 71 70 73 70 66 66 73 74 76 80 81 81 81 82 83 85 87 89 91 94 96 101 105
59 56 54 54 54 55 55 55 55 54 52 51 54 56 59 64 68 70 72 73 71 67 68 71 69 65 72 78 79 80 83 84 82 83 85 88 90 92 94 97 99 104 107 110
61 58 57 56 55 55 55 54 52 53 54 55 57 62 66 69 71 75 74 72 72 68 69 73 71 72 78 80 80 79 80 83 86 89 91 93 94 97 100 103 107 110 114 117
66 67 65 64 63 61 58 54 54 54 54 55 61 66 68 68 71 72 72 75 75 73 72 73 71 74 76 78 79 81 84 87 91 94 96 98 102 104 107 111 114 117 121 125
72 70 72 70 69 67 63 60 59 60 61 63 65 66 68 69 71 73 74 76 76 77 76 76 77 81 83 85 87 89 92 95 98 101 104 107 111 115 118 122 124 126 128 125
76 75 76 76 75 72 71 70 70 70 70 70 70 72 73 76 79 80 81 83 84 84 85 86 89 91 91 94 97 99 101 103 107 110 113 116 120 125 127 125 121 120 119 116
80 82 85 82 80 80 80 80 79 78 78 79 80 81 83 85 88 89 91 93 95 96 96 97 98 100 102 104 106 108 110 113 116 119 123 126 125 121 119 118 114 111 109 109
82 89 89 86 88 89 88 88 88 88 89 89 91 91 91 93 96 98 101 103 104 106 107 108 110 111 114 116 119 121 122 123 124 123 120 118 115 112 111 111 109 107 104 99
76 80 83 87 93 95 96 96 94 95 97 99 100 101 102 103 104 104 106 109 110 112 114 116 118 120 122 123 124 122 119 116 112 110 109 109 111 113 109 106 105 100 100 96

GFSNW_250_spd_027.txt.gz
Wind_Speed
56 56 47 39 41 49 47 41 35 34 32 33 34 31 29 26 26 27 28 26 24 22 19 13 13 13 14 20 19 17 14 12 9 7 8 9 12 12 14 17 19 22 25 27
61 54 45 41 46 53 47 41 40 35 35 37 34 33 30 28 28 28 26 25 22 20 17 14 14 15 18 18 17 16 14 12 11 12 13 15 17 17 18 19 24 28 31 33
60 51 46 46 52 55 48 40 38 37 38 39 35 33 32 30 27 25 25 25 22 20 17 15 15 16 17 17 17 15 14 14 16 17 19 19 18 19 21 25 29 31 32 37
57 50 49 50 55 52 47 41 38 40 38 37 36 34 31 28 27 25 25 25 22 20 18 16 15 16 17 17 16 16 17 18 19 20 21 21 20 21 25 29 30 32 37 42
56 51 53 53 57 50 44 41 42 43 42 40 38 34 31 29 26 25 24 24 23 20 17 15 15 16 15 14 15 16 17 19 21 22 23 23 25 27 29 29 33 36 40 45
55 54 56 58 54 47 45 43 44 43 41 39 37 34 31 30 27 26 24 23 23 20 17 19 16 16 19 20 19 19 21 21 22 24 23 24 30 31 30 34 40 44 46 51
52 58 62 55 52 50 45 43 43 43 42 40 39 35 33 31 28 27 26 25 22 18 17 21 20 21 20 19 21 22 23 23 24 27 26 26 32 34 35 39 45 49 52 56
53 62 61 56 52 48 48 45 44 46 45 43 36 33 32 31 31 30 28 27 23 21 21 22 21 20 21 23 26 27 28 27 28 28 30 28 35 41 42 45 50 55 58 63
58 66 60 53 52 49 48 46 45 46 45 38 36 34 32 31 30 31 31 30 28 26 25 24 25 25 26 25 29 31 30 28 28 30 32 35 41 47 51 53 55 60 65 65
62 66 55 52 50 52 50 48 47 47 43 40 37 33 33 33 30 30 30 31 32 30 28 27 28 26 28 30 30 30 26 28 32 36 36 39 47 53 56 58 60 65 68 68
63 66 53 49 48 48 51 48 47 47 42 39 37 35 36 36 33 31 31 31 32 32 31 31 31 30 30 30 30 32 34 36 39 41 44 46 53 57 58 62 66 71 70 72
60 64 56 51 48 46 45 47 49 49 45 41 39 37 37 36 33 33 33 33 35 34 35 35 34 32 32 33 34 38 39 44 45 49 53 56 58 59 63 67 71 70 70 76
62 59 59 54 48 46 42 42 47 48 45 42 39 39 38 34 34 33 35 38 40 38 39 40 38 38 39 39 40 42 47 51 53 58 63 66 65 66 67 70 72 72 75 80
59 61 58 58 52 47 43 42 46 48 47 45 44 42 40 40 38 34 34 36 38 41 43 43 43 42 42 43 44 47 57 62 63 61 66 66 70 73 74 75 74 74 80 83
60 56 63 60 55 50 46 44 43 46 49 50 47 45 44 44 44 44 42 40 39 39 41 42 42 46 49 49 51 55 65 67 66 65 71 72 75 76 77 77 76 80 83 82
52 57 58 61 61 55 49 46 46 45 47 50 53 50 47 47 49 52 54 53 52 51 52 53 54 57 56 52 54 65 71 71 72 72 75 76 77 76 77 79 82 84 83 81
51 52 57 58 62 61 55 51 50 50 49 49 49 50 52 56 58 60 60 59 59 58 57 57 60 62 61 59 60 74 74 77 79 79 79 76 78 81 81 83 85 85 85 87
52 52 52 57 60 66 61 58 53 51 51 50 47 48 53 56 58 60 62 63 63 62 62 64 67 64 66 63 74 74 77 78 79 79 78 81 80 82 85 86 86 87 89 92
49 53 53 50 56 63 66 64 63 58 55 54 54 56 60 62 65 66 68 69 68 67 68 71 71 70 71 76 76 76 77 78 79 78 78 81 84 85 87 88 90 91 95 99
53 50 49 52 52 57 64 67 66 64 63 57 54 57 60 64 68 70 73 73 72 69 70 70 66 62 70 76 77 76 77 78 79 80 81 84 86 87 90 93 95 98 102 106
57 53 50 49 51 54 55 56 55 56 56 57 62 66 68 71 72 74 75 73 72 68 67 69 66 67 73 77 78 79 80 82 84 85 86 88 90 93 96 99 103 105 109 113
62 59 56 54 52 51 48 46 47 49 50 52 59 63 63 63 65 66 66 69 69 68 69 70 69 71 76 79 80 81 83 84 86 88 90 93 97 101 104 108 111 115 117 121
64 62 63 63 61 57 54 53 53 58 59 61 64 65 66 66 68 69 71 72 72 73 73 74 75 77 79 81 82 84 86 88 91 94 97 101 105 109 113 116 119 121 125 126
71 70 69 68 65 64 63 63 64 64 64 65 67 69 70 72 74 75 77 78 78 78 79 80 83 84 86 88 91 93 94 96 99 103 106 109 112 117 122 123 125 125 125 121
71 72 72 73 73 72 69 69 71 73 74 74 75 76 77 78 80 81 83 85 87 87 88 90 92 94 95 98 101 104 104 106 108 112 115 117 120 123 126 124 122 119 117 116
74 76 77 75 74 76 79 79 78 78 80 82 84 85 86 88 90 90 92 94 95 98 100 101 102 104 106 108 110 113 115 116 117 121 122 123 122 119 115 112 109 110 110 106
77 76 77 79 80 78 78 81 85 87 87 88 90 91 94 96 98 99 101 101 103 106 107 108 110 112 114 116 118 118 121 121 119 115 112 107 105 105 107 109 109 105 101 96

GFSNW_250_spd_030.txt.gz
Wind_Speed
56 50 45 42 44 46 40 41 42 39 35 33 32 29 29 28 27 25 23 23 24 22 20 18 15 15 15 16 17 18 17 15 13 11 9 7 7 9 12 14 15 17 20 22
52 50 51 48 50 49 42 45 44 38 40 33 32 31 30 28 28 24 25 25 24 23 21 19 17 17 17 18 20 19 18 17 13 10 8 10 12 16 18 19 20 22 24 26
52 55 52 52 54 48 48 51 45 42 39 35 35 34 32 28 28 28 27 27 26 24 23 19 15 16 16 18 19 19 17 15 12 11 12 15 17 19 20 22 23 26 27 30
54 51 53 57 55 48 50 51 44 42 33 35 35 35 32 30 30 30 28 28 27 26 23 18 16 16 17 18 19 17 15 14 13 15 17 19 21 23 24 27 29 31 32 33
52 55 60 60 53 50 54 51 42 42 40 40 39 37 34 33 32 30 28 29 27 24 20 17 15 14 15 14 14 16 16 17 17 18 20 21 23 28 27 31 32 32 33 39
54 60 62 58 51 55 57 49 46 44 42 39 38 37 37 35 32 29 27 28 26 24 21 17 16 15 14 16 19 21 21 20 19 22 23 22 30 31 31 33 32 34 39 42
63 65 63 54 52 60 57 48 48 43 42 41 43 41 38 35 31 29 28 27 25 23 21 19 20 20 21 23 24 23 23 24 25 27 27 25 34 37 35 32 35 40 45 47
68 65 59 55 56 60 58 48 47 45 45 47 43 39 38 36 31 30 28 26 25 24 23 23 24 25 25 26 26 27 28 29 29 31 33 29 35 39 36 37 40 48 50 56
70 62 55 57 59 58 54 50 46 47 49 45 43 41 39 36 34 31 28 27 26 25 25 26 25 25 25 24 29 30 31 31 32 35 32 28 37 41 40 41 42 53 58 61
65 57 55 56 62 56 53 50 48 49 48 44 42 41 40 37 35 33 31 30 29 28 29 28 28 29 29 30 32 34 33 34 37 36 31 30 39 41 44 47 51 56 62 66
60 53 56 58 57 52 53 52 50 49 47 46 43 42 41 39 36 33 30 30 31 32 33 33 34 32 33 34 35 36 38 39 38 36 38 38 42 46 50 55 59 64 66 68
55 53 59 58 58 56 52 50 49 48 48 47 45 44 43 40 34 32 31 31 32 32 33 34 36 36 37 37 36 39 41 44 42 46 47 46 48 53 58 62 65 68 71 74
50 55 63 59 57 53 53 50 50 47 48 47 46 44 42 41 37 35 34 34 34 34 36 37 37 39 40 41 42 44 47 49 50 50 52 55 58 60 63 66 69 72 75 78
49 62 61 57 53 49 51 49 49 47 47 47 46 45 44 43 41 39 39 38 37 36 37 38 40 42 43 44 47 48 52 55 53 51 58 61 64 67 68 71 74 78 82 84
54 66 60 55 51 46 46 47 47 47 47 48 49 47 45 45 44 43 42 42 41 39 37 35 35 37 42 44 45 49 57 58 58 59 64 65 68 71 74 78 81 84 86 87
55 65 61 55 50 46 43 41 42 42 45 48 48 50 49 49 49 49 49 48 48 46 45 44 44 46 46 45 49 66 64 64 66 67 70 71 73 75 78 82 84 87 87 87
51 62 63 56 53 49 47 45 44 43 43 44 48 50 49 52 56 56 55 54 52 50 49 50 53 54 54 53 58 68 67 69 72 74 75 78 81 83 85 87 87 89 91 92
44 55 64 60 57 55 53 50 46 45 44 44 45 46 50 53 56 57 58 59 59 58 58 59 60 59 61 61 68 70 71 75 77 79 82 83 84 84 86 89 91 92 92 92
46 46 56 64 63 60 58 56 53 50 46 45 46 49 53 54 58 58 59 59 59 59 60 61 60 60 64 68 72 75 77 78 79 80 80 82 85 88 91 90 91 91 92 93
50 50 47 47 56 66 64 62 61 57 55 51 52 54 56 59 61 62 62 60 58 56 60 64 64 65 70 75 78 78 79 79 79 81 84 87 89 89 90 91 93 94 96 99
50 49 49 50 49 48 53 61 61 61 61 61 60 63 65 65 64 65 66 66 67 66 67 71 70 73 77 81 82 82 84 86 87 86 86 87 89 91 93 95 98 101 103 106
53 50 47 47 45 46 47 46 48 54 63 70 73 75 73 72 74 74 73 75 75 74 73 73 70 72 77 79 81 82 83 84 86 88 90 92 94 96 99 102 105 108 111 115
52 52 51 50 48 45 43 45 51 56 58 61 65 67 69 70 71 71 72 73 71 73 72 73 74 77 79 80 81 83 85 87 89 92 95 98 101 104 106 109 112 115 118 122
54 56 56 54 52 52 51 53 55 55 58 61 62 63 65 67 68 71 72 73 72 72 74 76 79 81 82 85 87 89 92 95 98 101 102 106 109 111 113 116 119 121 123 125
63 64 63 60 59 59 58 58 60 61 61 62 64 66 68 70 72 73 75 77 78 79 82 85 88 91 93 96 98 100 102 104 106 108 111 115 117 119 121 121 122 123 121 117
64 64 66 68 67 66 67 67 68 69 71 72 74 75 76 79 80 81 83 85 87 90 93 95 97 100 102 104 106 110 112 113 115 117 117 119 121 120 119 118 115 115 115 116
64 65 69 72 70 71 73 75 75 76 78 79 80 81 84 85 87 89 92 94 97 100 101 103 105 107 110 113 114 114 115 116 117 117 116 114 112 109 108 109 110 110 106 102

GFSNW_250_spd_033.txt.gz
Wind_Speed
61 62 69 69 60 51 44 45 35 30 30 35 35 33 29 30 28 27 28 26 24 22 19 17 16 15 16 15 14 13 13 13 15 17 16 14 10 8 7 8 10 12 16 19
60 62 69 63 58 56 50 48 41 35 36 39 40 34 29 30 30 30 28 26 24 23 19 18 18 17 14 13 13 15 16 17 17 16 13 10 7 8 10 12 14 17 20 22
58 61 65 62 61 59 53 53 45 38 43 45 40 35 33 32 32 30 27 26 25 22 21 20 16 14 14 15 15 16 17 16 14 13 12 11 10 13 15 16 19 22 22 26
57 63 65 65 65 56 52 52 42 46 43 42 40 37 36 33 33 31 29 28 25 24 23 21 17 15 15 15 17 18 18 17 16 14 13 14 14 16 20 20 24 27 29 31
63 66 66 62 64 53 53 49 47 49 50 47 40 38 37 33 31 31 30 28 26 25 24 21 17 16 16 17 19 19 17 16 16 17 17 15 18 23 24 25 29 30 31 36
63 65 63 65 58 53 56 49 58 53 49 47 40 42 39 35 33 34 31 29 28 27 25 23 20 18 18 18 20 21 21 21 20 19 19 18 25 29 29 31 32 32 35 35
63 63 62 57 54 59 55 53 58 56 50 45 46 44 40 37 35 33 33 31 29 29 28 26 23 21 21 22 22 23 23 22 22 25 25 24 32 36 36 32 34 35 36 36
61 57 56 57 59 61 56 62 59 55 51 47 47 44 40 37 36 36 34 30 31 31 29 27 24 24 25 25 26 27 27 27 27 29 31 31 35 40 42 38 37 38 38 41
60 59 59 59 63 60 57 62 59 54 51 47 48 44 41 39 38 37 34 31 30 31 30 28 27 26 26 27 29 29 29 29 30 33 33 34 41 44 43 42 40 42 43 48
60 59 60 62 61 58 63 62 58 55 50 48 47 43 42 41 39 38 34 31 31 30 29 29 29 28 27 28 30 31 31 31 33 36 36 37 42 44 45 45 44 44 51 57
59 61 63 63 59 60 63 61 58 54 50 49 47 45 43 42 40 38 35 32 32 30 30 29 28 29 29 31 32 34 35 36 38 40 41 41 45 47 48 48 49 53 57 62
65 66 62 60 57 63 65 56 56 53 50 50 48 46 43 42 40 39 37 34 33 32 31 31 31 34 34 36 37 40 40 42 43 46 46 46 46 47 49 53 57 61 63 67
65 61 62 59 60 67 65 55 57 54 53 51 49 45 42 41 41 40 39 38 37 33 32 33 33 34 35 37 39 41 43 46 47 48 51 53 53 53 56 60 61 65 69 72
61 59 57 60 62 63 61 61 54 52 52 51 49 46 43 42 41 42 41 39 38 36 36 35 35 36 38 40 41 43 47 50 51 51 54 55 58 59 63 64 68 72 75 78
59 54 56 58 61 62 61 61 55 52 51 51 50 47 45 43 43 44 43 42 40 40 39 38 39 40 40 40 42 49 48 46 46 49 56 58 62 65 67 71 73 77 80 83
53 49 54 59 61 61 53 50 48 48 48 50 49 48 47 46 46 47 47 47 47 46 44 42 42 45 44 43 47 58 58 56 56 57 60 63 65 68 72 75 79 83 86 91
50 46 57 61 61 54 51 51 53 51 51 50 49 49 49 49 49 50 50 51 51 49 48 48 49 49 49 49 52 61 61 63 65 65 66 70 72 75 78 82 86 90 93 95
44 43 52 62 59 52 49 50 48 47 47 48 49 49 51 52 53 52 53 52 52 52 52 53 55 55 58 59 66 69 70 71 72 72 73 75 78 82 85 89 93 94 93 93
43 41 54 62 56 52 48 48 46 44 43 43 45 48 50 52 55 54 54 54 53 53 54 56 58 59 63 67 69 70 69 71 73 76 80 83 85 89 92 94 92 93 91 91
43 43 51 64 59 52 51 49 47 44 44 44 46 47 48 50 51 52 53 54 56 57 59 62 62 61 64 66 66 69 73 77 79 82 85 88 91 93 92 91 91 91 94 97
44 42 48 59 61 57 55 52 50 48 48 49 51 52 52 53 54 55 55 54 56 56 58 61 59 61 68 72 76 78 81 84 87 91 92 93 92 91 92 93 95 99 102 106
50 47 45 48 54 55 56 54 54 56 58 60 61 61 61 62 62 62 61 62 61 60 63 66 66 72 77 80 83 86 89 91 92 93 94 93 93 94 97 100 103 107 110 114
52 51 48 46 43 42 45 53 55 59 63 65 67 69 71 71 72 70 71 71 71 72 72 74 78 82 86 89 92 91 90 91 93 93 93 95 98 100 103 107 111 113 115 118
56 55 51 48 45 46 50 53 56 56 55 56 57 59 60 62 64 66 69 71 74 75 78 79 80 81 82 83 84 85 87 89 93 96 98 101 103 108 111 113 116 119 121 122
58 55 53 51 52 53 52 53 53 55 56 57 57 59 61 63 64 66 69 70 71 72 74 75 76 78 82 86 89 91 94 96 99 102 104 108 111 113 114 116 119 121 122 121
57 55 54 55 55 56 57 58 59 60 61 61 62 63 64 65 66 68 71 73 75 76 79 81 84 87 90 93 96 98 102 105 107 109 110 112 112 116 118 118 116 113 111 112
64 59 61 62 62 62 61 61 63 64 65 67 67 68 71 72 74 77 80 81 83 85 88 91 93 96 98 101 104 106 107 108 108 111 113 113 114 113 112 110 111 110 109 107

GFSNW_250_spd_036.txt.gz
Wind_Speed
97 99 92 86 79 75 73 74 68 52 47 40 36 31 30 30 27 29 28 23 25 25 23 23 21 21 21 20 19 16 16 16 17 17 18 19 19 19 15 14 14 15 16 17
93 97 90 83 74 64 67 66 64 55 50 39 38 35 36 34 34 31 28 28 28 26 25 23 21 21 20 18 15 15 16 17 18 21 21 20 17 16 14 14 15 18 21 21
87 87 81 75 70 69 68 69 66 62 49 46 42 42 40 37 36 34 31 29 28 28 25 21 20 21 19 16 15 15 16 20 21 20 18 18 18 16 16 17 18 21 24 25
82 75 76 73 70 67 67 66 67 57 48 48 46 48 42 40 35 34 31 30 30 28 24 22 24 22 19 17 15 18 20 21 20 20 20 18 17 18 20 21 21 25 28 30
61 64 68 67 66 65 63 66 62 56 55 54 50 50 44 41 36 35 33 33 31 28 25 26 25 21 17 16 16 20 20 20 21 21 21 20 19 23 24 23 24 28 29 35
65 63 57 60 63 64 67 65 63 60 59 53 52 49 46 40 39 37 36 33 32 29 29 29 25 21 19 18 20 23 24 24 24 25 23 20 25 28 26 27 30 31 33 38
64 59 57 61 63 68 70 67 66 63 59 56 55 49 48 44 42 38 37 34 32 31 33 29 27 24 22 22 24 26 27 27 28 27 24 25 32 32 33 33 35 36 38 40
58 57 60 65 68 68 70 66 66 65 60 58 57 52 47 46 42 38 37 35 33 34 33 31 28 26 24 26 29 29 29 30 30 29 31 32 34 37 39 37 40 40 42 45
61 61 66 65 67 68 69 62 66 60 61 60 55 52 49 46 43 38 37 37 35 34 34 32 30 30 29 30 32 32 32 33 33 34 35 35 39 40 41 41 42 45 47 51
62 62 65 66 66 69 66 63 63 65 60 58 57 49 48 47 44 40 38 37 37 35 35 34 34 32 32 32 32 32 33 34 36 37 36 38 40 41 42 44 45 48 50 52
62 64 64 61 63 62 60 65 65 64 55 58 56 50 49 46 44 41 40 39 39 36 35 35 36 36 36 34 33 33 34 34 37 38 40 40 42 43 46 49 50 52 53 54
60 62 60 61 60 62 65 62 65 61 56 59 54 52 50 48 44 41 39 39 37 37 37 36 35 36 35 34 34 34 35 37 40 42 43 44 44 47 50 52 54 57 60 62
60 62 61 60 60 63 66 63 65 59 59 59 54 53 50 48 46 43 41 41 40 38 36 36 35 35 35 35 37 39 40 43 44 45 47 47 48 51 52 53 55 58 62 66
63 62 62 62 64 65 61 66 63 58 58 58 54 53 50 49 47 44 44 43 41 38 37 37 37 37 37 38 39 41 43 44 45 47 48 48 50 50 50 56 60 64 66 67
61 62 64 65 65 63 60 65 59 60 60 58 54 53 51 50 47 45 45 45 43 42 41 40 40 40 39 40 41 44 45 46 47 50 52 54 57 60 61 62 66 67 71 74
61 61 65 65 61 57 62 63 60 57 53 54 52 52 52 50 49 46 44 44 45 45 44 43 42 44 43 43 45 49 52 53 53 55 57 59 60 63 66 70 72 76 79 82
58 59 62 62 57 57 60 63 57 54 53 54 53 52 50 50 49 47 46 45 45 45 45 45 47 50 51 52 53 58 60 59 59 60 62 66 70 72 73 76 79 82 83 85
51 52 51 50 51 58 60 63 54 49 54 54 52 51 52 52 51 50 48 47 47 48 50 52 54 55 56 57 61 63 64 65 66 68 72 72 73 76 79 81 82 84 87 92
49 48 47 51 51 55 59 63 57 51 49 49 50 52 53 52 52 52 52 52 52 52 53 55 56 57 59 62 64 66 67 71 72 73 75 76 77 79 81 84 87 91 97 100
51 46 49 53 53 50 57 59 54 51 50 52 53 53 53 54 55 55 54 54 53 52 55 56 56 58 65 68 69 70 73 75 76 76 78 79 81 83 86 91 96 99 98 97
51 48 44 48 50 52 54 56 52 47 48 53 55 53 53 54 54 54 53 54 54 53 56 59 59 61 68 71 73 73 73 74 76 79 82 84 88 92 96 99 98 97 97 98
51 49 43 42 44 54 53 57 54 51 52 54 54 52 51 51 51 52 53 56 56 55 58 61 62 68 72 72 72 74 77 81 84 87 90 93 96 97 96 97 98 100 104 106
49 48 45 40 39 47 58 60 58 55 54 56 57 57 56 56 57 58 59 59 59 62 63 64 70 74 75 77 80 83 86 88 90 91 93 94 94 95 96 99 103 106 109 112
51 48 45 40 39 43 52 62 62 59 58 55 55 57 59 60 61 60 62 63 66 67 70 75 78 80 82 83 83 84 84 85 87 90 92 94 96 100 103 106 109 112 115 116
52 50 49 46 46 47 50 53 58 62 61 61 61 62 63 65 65 67 69 70 71 72 72 72 74 75 77 79 81 82 83 86 90 93 97 100 103 106 109 112 114 116 116 114
55 54 54 52 53 54 53 55 56 59 61 62 62 63 64 65 65 66 68 70 70 70 71 72 75 78 81 83 86 88 91 95 98 101 104 107 110 110 112 112 111 113 112 109
60 60 60 60 60 58 58 58 58 59 60 61 62 63 65 66 67 69 70 72 74 76 78 80 82 85 88 92 94 96 98 102 105 106 107 109 110 109 108 108 105 108 110 110

GFSNW_250_spd_042.txt.gz
Wind_Speed
109 105 103 105 104 100 103 86 86 94 87 85 82 75 75 75 69 62 59 62 45 30 29 23 22 29 32 32 33 33 31 35 31 30 28 29 29 30 28 27 25 24 25 24
107 108 107 108 108 106 98 87 90 97 94 82 78 75 73 73 64 64 62 56 45 30 27 22 20 23 27 33 32 29 28 29 30 27 30 29 31 28 25 25 26 30 27 28
101 103 105 109 110 106 101 100 100 94 88 83 78 78 77 74 69 66 62 58 43 33 31 30 31 28 34 33 31 33 30 31 30 29 31 28 29 27 28 28 29 30 29 25
94 95 98 103 110 107 103 99 93 93 88 81 81 77 76 70 68 64 55 50 38 37 31 31 33 31 33 34 35 34 32 32 30 30 30 30 29 30 29 29 31 25 30 24
90 91 90 98 105 106 100 93 89 84 88 88 81 79 74 71 67 61 43 45 41 43 35 30 34 32 31 33 33 33 32 32 30 30 30 31 29 30 30 30 28 26 27 25
74 79 88 91 93 97 88 82 83 79 77 77 78 67 67 64 62 48 46 47 46 45 39 34 33 35 35 35 35 34 31 31 31 31 30 28 30 32 30 29 28 28 30 33
63 72 79 89 88 86 66 75 71 67 64 66 61 66 66 55 51 46 47 51 50 44 38 39 36 36 37 36 35 34 33 31 32 31 30 29 34 31 31 31 33 32 33 36
60 66 75 78 87 56 65 68 65 59 56 60 64 58 50 48 43 42 51 50 50 48 44 39 39 39 39 36 35 34 32 30 31 32 32 34 35 33 35 35 36 36 40 43
55 62 66 73 56 59 64 63 59 57 58 55 52 56 47 39 39 47 48 54 54 49 44 43 41 42 43 36 35 35 32 31 30 35 35 35 35 38 38 39 38 41 46 47
52 60 63 53 61 62 61 59 58 57 57 57 63 54 40 41 38 37 43 54 53 49 49 46 45 44 44 39 38 36 33 32 32 34 36 37 35 40 41 42 45 45 48 50
49 51 56 61 62 60 59 56 46 32 46 59 58 55 54 53 44 44 63 54 56 49 52 49 47 46 43 41 39 38 36 35 34 33 34 36 40 41 44 44 46 49 51 54
54 56 58 61 60 62 61 58 65 31 60 51 49 53 56 61 50 50 58 63 59 54 51 49 46 46 43 42 40 40 40 38 37 36 34 38 40 41 44 49 51 52 53 54
56 59 61 62 64 61 53 56 60 64 52 55 58 60 67 65 68 59 60 58 52 53 52 52 47 45 41 41 40 42 41 42 40 41 40 40 44 42 46 50 50 52 54 52
59 61 59 57 53 50 54 45 36 39 50 51 54 60 62 68 68 51 68 58 57 54 53 50 48 46 43 41 39 41 43 44 43 46 44 47 42 44 52 50 51 52 55 58
60 62 65 67 59 60 64 74 71 57 53 55 63 65 67 63 66 67 62 58 55 54 53 49 48 48 46 43 42 42 43 44 46 46 48 49 44 48 51 52 53 58 63 67
58 61 63 64 63 64 66 68 58 61 62 65 64 63 61 59 57 57 58 55 54 52 50 49 48 49 46 44 45 43 47 48 49 48 51 50 51 51 55 57 62 66 70 73
59 57 60 58 57 56 53 60 64 62 64 65 64 56 57 58 59 55 52 51 51 52 53 50 49 49 48 48 47 47 51 51 52 54 54 54 55 57 61 65 69 72 75 78
53 55 55 55 55 53 58 60 61 63 66 60 55 51 56 55 58 54 48 50 53 55 55 54 53 52 51 49 50 52 55 55 57 59 59 58 62 65 68 71 74 77 79 82
52 55 55 53 56 59 61 57 56 60 59 54 52 49 53 52 52 54 54 54 55 54 54 56 56 54 52 53 57 57 59 59 59 62 64 66 68 71 73 75 76 79 83 87
52 57 60 58 59 57 56 54 50 52 52 52 50 48 50 48 48 51 55 56 55 52 52 54 54 55 58 61 61 62 63 64 64 66 68 70 73 75 76 79 82 85 88 89
51 54 55 54 50 49 53 53 51 47 49 49 48 48 48 45 44 47 51 53 50 48 50 54 55 56 63 66 66 67 66 67 67 69 72 74 76 78 81 84 87 88 90 92
50 52 50 48 47 48 48 48 46 46 48 46 48 55 54 51 48 47 48 52 54 53 53 54 50 56 64 67 68 69 69 70 71 73 74 76 79 83 85 88 90 92 95 99
44 44 40 39 40 41 43 45 46 47 51 49 48 51 56 56 53 52 53 52 53 54 55 55 55 64 67 68 68 68 69 70 72 75 79 82 84 87 89 91 93 97 101 103
38 38 37 36 37 40 43 45 44 47 49 45 45 49 54 60 59 57 58 57 56 55 54 53 63 67 68 70 72 72 73 76 79 81 83 85 88 89 93 96 99 104 104 106
35 34 38 40 41 45 46 44 43 44 46 47 47 47 52 60 62 64 64 61 59 57 58 64 66 67 69 71 72 74 76 79 82 83 85 88 92 95 99 103 104 105 107 110
31 33 39 38 38 43 45 44 43 45 46 47 48 50 52 54 56 60 63 68 70 70 71 69 69 70 71 72 75 77 78 80 84 87 91 94 99 102 102 103 106 109 114 117
35 38 41 41 40 40 44 47 47 46 46 48 50 52 55 56 57 59 61 63 65 70 72 74 75 76 77 79 81 84 87 90 92 95 98 99 99 101 105 109 112 113 114 115

GFSNW_250_spd_048.txt.gz
Wind_Speed
116 115 113 111 115 116 112 106 97 96 95 88 78 70 68 73 74 70 67 63 55 54 52 50 51 51 51 47 35 29 30 24 28 31 26 20 22 28 29 29 32 36 36 35
118 116 114 113 116 122 121 116 111 105 102 91 80 73 71 74 78 74 69 64 60 56 53 54 53 52 51 49 40 31 33 32 30 32 29 28 28 30 32 37 37 36 35 34
117 117 117 114 114 117 123 123 118 112 105 95 90 83 80 78 83 75 71 66 63 57 56 57 54 52 48 46 36 33 33 35 34 33 29 29 29 31 33 29 30 31 31 34
106 115 115 116 116 114 118 124 121 108 101 92 91 89 83 79 82 75 70 66 62 59 58 58 59 54 52 55 34 33 33 29 32 36 35 29 24 28 30 28 29 31 36 34
96 104 109 112 115 116 117 113 106 105 99 96 96 94 86 80 84 76 69 67 64 60 58 59 52 53 55 55 39 33 35 30 30 28 31 29 26 32 34 28 31 35 36 37
84 97 99 103 109 118 109 108 102 98 94 96 98 90 86 78 82 74 73 70 63 58 58 62 60 60 56 56 43 35 39 34 31 34 34 37 30 37 33 35 34 36 37 37
74 85 91 94 103 103 102 104 100 95 87 89 87 86 84 79 80 73 70 70 62 62 62 62 63 60 56 57 49 37 36 32 31 31 33 29 37 32 35 36 34 36 37 35
67 74 80 88 89 85 94 102 101 94 89 85 85 84 82 78 80 75 74 67 66 67 67 66 66 61 58 54 48 40 38 34 32 30 30 30 34 34 36 33 34 35 34 33
60 64 71 77 76 77 80 87 89 94 90 87 84 84 82 81 81 81 77 75 72 69 66 66 63 56 54 49 46 41 43 36 30 29 30 30 37 34 35 33 35 36 36 36
54 57 61 62 62 71 74 75 80 87 87 85 83 81 82 81 81 75 73 70 71 69 63 61 56 54 51 47 40 42 42 36 31 31 30 31 36 34 34 37 40 38 39 39
51 54 57 57 57 65 64 62 70 77 86 85 80 80 76 73 70 68 67 68 64 63 59 58 54 50 46 42 39 40 42 35 32 33 33 31 36 36 39 39 40 38 39 42
49 51 51 52 53 57 58 57 62 70 77 76 75 73 70 67 69 67 66 62 63 60 55 50 46 42 39 35 38 36 39 36 34 34 31 34 39 42 43 44 41 40 42 43
44 46 50 54 54 54 56 58 60 60 64 67 67 66 65 64 63 61 60 57 55 53 53 48 39 39 41 36 31 38 39 45 40 36 35 37 40 45 45 46 46 46 47 47
44 49 53 55 57 57 56 57 59 58 56 56 57 53 52 52 49 49 47 48 52 52 56 54 46 43 41 32 30 31 39 41 47 44 40 41 42 46 48 48 49 51 52 55
50 53 56 59 58 57 58 58 56 52 48 43 42 42 44 44 44 45 44 48 48 51 57 57 59 48 45 40 36 32 42 44 46 47 44 44 44 44 47 49 51 53 56 57
59 63 67 65 60 58 56 53 50 47 46 45 44 41 41 38 36 36 37 49 48 45 53 54 48 50 48 43 34 38 44 47 50 49 48 48 47 48 50 51 52 53 55 58
65 67 69 67 64 61 57 57 56 57 53 50 49 42 34 22 20 32 39 37 39 39 46 55 45 46 48 47 44 50 47 52 53 53 51 50 50 52 54 56 58 59 61 63
71 71 71 71 72 72 68 63 57 50 49 51 44 44 38 39 35 30 34 45 49 51 51 53 57 53 51 49 49 49 51 52 52 53 52 53 54 55 55 58 61 63 65 67
71 70 71 73 74 71 63 59 51 51 39 47 55 56 58 47 45 38 45 51 58 57 55 48 50 49 46 47 51 53 54 52 51 54 55 56 57 58 59 61 64 65 68 71
74 77 75 74 71 64 60 52 52 47 47 45 45 52 56 47 53 53 56 56 60 60 63 62 54 46 49 52 49 49 54 56 56 57 58 59 60 61 63 65 67 70 72 74
70 68 73 69 67 66 67 67 63 55 55 54 51 52 56 55 51 53 62 66 70 63 60 61 57 51 56 61 63 58 57 58 61 61 61 61 61 62 64 67 70 72 74 75
61 68 66 64 67 68 66 61 57 54 55 56 56 57 56 58 51 50 52 57 67 73 67 60 58 61 68 71 62 60 58 57 57 60 61 63 65 67 69 71 73 75 78 82
41 50 57 63 62 58 56 59 59 53 54 53 50 56 51 48 45 49 51 53 58 67 77 77 75 75 76 77 75 66 64 66 66 67 67 68 69 71 73 76 79 82 84 86
38 44 56 59 60 55 52 52 51 47 45 45 46 47 46 41 40 42 44 46 49 51 61 81 81 75 77 76 73 76 77 76 73 71 71 71 73 76 78 80 82 85 87 90
43 52 56 54 52 51 50 51 50 49 47 50 47 44 43 43 44 44 47 49 52 55 60 66 67 66 68 69 69 69 69 69 69 70 71 73 75 78 81 84 88 91 95 98
35 44 48 49 51 50 49 49 52 54 54 54 54 57 56 53 49 51 52 53 55 59 62 63 63 62 62 65 68 70 73 74 76 77 78 80 83 86 90 92 92 92 93 95
25 26 28 32 36 38 40 42 46 50 52 51 49 53 55 54 54 55 54 55 58 60 63 65 65 64 65 67 71 74 75 77 79 80 82 85 85 85 85 87 89 90 92 95

GFSNW_250_spd_051.txt.gz
Wind_Speed
108 114 115 114 112 111 112 107 103 103 100 96 83 78 75 76 77 69 66 60 58 56 52 50 50 51 51 49 45 47 43 36 26 26 24 23 21 19 21 23 24 25 25 27
101 112 115 118 114 115 110 105 107 107 106 95 78 77 76 77 79 73 69 65 57 55 54 52 52 52 49 49 48 47 42 41 36 26 27 26 23 26 29 29 28 30 26 33
95 104 114 117 118 116 114 110 107 109 109 91 86 80 76 76 83 72 64 62 58 55 55 55 52 52 51 52 49 49 46 44 38 32 29 27 25 33 30 32 30 30 29 26
86 98 106 116 120 118 119 116 108 97 95 88 84 82 79 78 79 69 64 63 59 58 59 57 55 54 54 55 49 47 45 43 38 34 32 33 31 33 34 34 31 22 26 24
80 88 101 108 115 119 121 116 111 99 90 91 90 88 80 78 83 74 69 67 66 66 63 61 57 57 55 50 48 50 52 48 46 36 36 33 30 35 38 36 26 23 25 25
74 79 93 101 109 115 112 109 111 102 97 93 90 79 81 82 87 81 75 71 71 68 66 64 58 54 54 53 50 50 53 52 49 41 38 34 28 36 34 33 30 25 25 30
69 74 84 94 104 102 94 109 110 103 97 96 85 85 82 84 84 83 79 73 74 71 69 67 61 56 55 55 52 53 54 56 48 41 38 35 39 38 34 31 31 29 31 33
65 71 78 86 86 89 92 103 109 104 97 92 89 84 82 86 84 88 80 74 75 77 74 70 65 59 51 50 53 54 57 60 51 38 36 34 34 39 35 31 27 33 36 35
59 65 71 75 74 80 87 92 100 102 99 93 90 85 79 74 73 82 74 77 76 70 61 61 54 55 54 54 56 57 59 60 48 38 36 34 36 37 36 32 29 38 36 32
55 59 64 65 63 70 80 85 92 100 97 98 91 84 80 75 71 72 73 69 64 65 63 60 60 59 60 58 59 62 61 55 47 38 35 36 38 39 35 33 40 34 33 34
50 54 57 56 58 64 72 81 85 91 95 93 93 89 83 77 74 72 67 68 64 65 64 62 63 63 57 61 58 57 56 52 44 38 37 36 39 37 39 40 37 37 34 36
45 48 50 52 54 59 67 75 78 85 92 87 86 83 82 80 79 76 69 63 61 60 62 60 63 63 59 58 59 55 56 51 43 35 34 38 41 40 42 42 40 39 40 41
42 44 46 48 49 55 62 73 77 79 84 88 85 85 82 81 77 78 71 69 64 61 64 65 61 61 61 59 56 54 50 46 39 35 35 36 38 42 41 41 41 42 44 44
40 42 44 46 50 54 59 67 73 75 78 79 80 78 79 80 77 71 68 67 64 64 63 60 63 61 61 58 54 48 45 45 36 36 29 36 38 44 47 46 46 46 47 47
38 41 46 50 54 58 63 65 68 68 62 64 67 70 75 78 77 74 73 67 64 63 62 60 63 63 58 55 52 49 46 45 44 43 40 36 38 37 44 49 49 49 50 51
46 50 52 54 57 59 60 60 58 56 56 57 61 65 67 66 69 68 67 67 64 66 66 65 62 57 58 58 58 52 52 52 51 49 48 43 41 40 43 48 51 52 53 55
46 51 55 59 61 59 56 56 55 57 55 57 58 56 55 55 59 59 60 61 61 62 61 61 57 56 57 55 57 55 57 54 49 47 48 46 46 45 45 50 53 54 55 57
50 55 59 63 64 64 63 62 60 56 52 50 46 46 46 46 48 49 51 52 53 52 48 46 47 52 52 54 56 56 50 51 52 54 54 53 52 50 50 51 54 56 57 59
56 61 64 66 65 62 59 56 55 53 49 50 50 49 47 43 40 36 39 40 36 27 30 38 44 49 55 58 56 55 54 59 59 56 54 55 55 54 55 56 56 58 60 62
60 63 65 66 66 63 62 59 54 52 53 53 50 49 47 43 38 32 33 39 32 18 34 44 48 53 59 56 60 65 66 59 55 56 56 53 54 56 58 61 63 63 66 67
59 64 64 65 65 63 62 61 58 55 54 57 58 52 40 39 33 33 34 43 45 44 52 58 55 56 60 47 45 56 61 60 58 58 60 59 59 58 62 65 66 66 66 67
61 62 67 67 67 67 66 67 66 62 66 61 60 54 52 53 54 52 55 55 56 60 58 62 60 57 63 56 56 59 60 56 59 64 65 65 65 67 67 67 66 68 72 75
53 56 59 58 61 64 66 64 65 64 66 65 64 61 58 57 58 66 65 62 57 49 45 45 50 57 61 65 67 69 68 66 70 71 72 72 71 70 76 83 81 82 82 85
48 50 55 55 55 56 60 59 59 59 55 54 55 57 65 59 51 51 57 54 51 48 45 52 60 62 67 69 69 73 74 73 74 75 74 75 78 83 86 82 77 77 79 81
39 43 51 51 50 51 51 52 51 50 49 51 51 52 54 52 52 54 52 52 50 53 57 63 64 65 65 65 66 69 73 77 81 85 85 87 90 87 80 82 84 83 86 90
29 36 41 39 44 46 47 51 49 50 50 46 45 44 49 46 43 46 52 56 54 55 49 47 50 53 56 58 61 64 67 69 72 75 82 82 80 79 79 82 86 90 92 92
34 34 34 28 34 38 43 42 45 44 40 41 44 43 43 42 41 43 46 50 54 55 54 55 56 57 59 62 65 67 70 74 76 78 81 82 83 83 83 84 85 88 89 90

GFSNW_250_spd_057.txt.gz
Wind_Speed
75 74 80 84 89 92 96 99 97 96 105 104 90 87 78 81 77 74 71 64 63 60 57 53 48 46 46 41 37 40 40 39 38 37 38 40 40 35 28 20 21 23 25 27
73 73 76 79 85 90 92 93 94 103 110 98 85 82 82 80 81 76 72 69 65 60 59 56 51 49 48 45 39 42 42 43 40 36 40 40 44 40 35 28 24 28 28 32
72 72 73 76 81 85 90 91 95 107 108 86 89 88 82 79 80 80 74 71 68 61 61 58 56 53 52 49 44 46 44 43 40 37 38 41 42 44 39 32 21 31 34 36
70 71 72 73 77 81 87 89 93 93 85 77 81 84 81 80 80 79 77 72 69 61 60 60 59 55 52 50 49 48 44 39 40 40 40 41 42 43 48 34 28 26 39 38
67 68 70 71 74 80 80 84 84 83 79 81 86 85 81 77 79 80 75 69 64 61 59 60 57 54 52 49 46 44 43 40 42 41 42 42 41 49 46 41 32 27 33 36
65 67 69 70 69 71 68 76 79 80 79 83 87 81 79 77 77 75 69 68 69 64 63 64 58 54 50 47 46 46 43 42 44 44 44 43 39 50 51 44 39 32 31 34
60 62 65 65 62 61 67 75 78 76 78 83 83 87 80 80 79 80 74 71 69 68 69 63 58 55 53 51 49 47 45 45 46 46 47 42 48 53 54 47 43 36 30 36
55 57 60 59 55 59 65 73 71 72 77 85 89 90 83 80 84 84 79 76 75 73 67 62 59 57 56 53 51 49 48 47 49 49 48 43 41 54 51 50 44 42 37 32
47 51 53 55 53 58 66 66 65 69 78 82 89 94 90 82 82 90 83 80 75 76 71 65 60 58 58 56 52 49 52 52 52 50 48 39 41 47 51 49 46 42 32 30
46 48 50 52 52 61 64 62 62 67 77 82 86 93 93 90 85 86 88 85 81 79 71 65 61 57 55 53 49 49 52 55 53 50 46 41 41 48 56 47 47 49 41 32
45 47 48 49 55 57 55 56 58 64 72 78 84 93 98 93 89 87 84 90 82 75 68 62 59 58 56 56 52 52 50 45 46 49 48 40 47 46 48 51 52 43 42 36
42 44 45 48 50 50 53 53 56 63 70 75 81 90 97 95 92 92 87 84 83 76 72 65 61 59 58 55 50 50 49 49 51 52 50 47 48 49 48 53 51 46 40 36
37 38 42 44 45 49 51 54 56 61 68 78 83 94 99 98 95 93 88 84 82 76 73 69 67 62 60 58 54 52 52 53 53 55 49 46 46 49 53 54 50 45 41 41
34 36 37 40 45 48 51 53 56 61 69 78 86 90 100 101 98 92 87 84 78 76 72 68 63 58 57 54 52 49 47 47 46 44 46 52 52 52 53 53 49 46 46 47
32 34 37 40 42 44 46 48 52 57 64 71 81 90 97 99 97 92 89 84 79 75 69 64 58 55 53 53 51 46 49 49 50 49 53 55 55 55 57 54 54 49 48 52
29 30 32 33 36 38 40 44 49 54 60 70 74 81 90 93 94 93 90 86 80 74 68 65 61 58 56 54 49 49 53 54 54 54 58 58 59 58 61 59 58 52 51 54
26 27 29 32 37 40 45 53 56 58 60 67 77 81 87 94 95 93 90 84 77 73 70 64 62 60 59 57 53 54 56 57 58 59 60 59 63 64 64 64 61 53 52 55
26 28 32 35 36 42 46 48 49 53 58 65 73 76 86 92 95 93 89 83 79 75 71 67 66 66 63 57 54 56 57 59 61 62 63 65 67 66 65 64 58 57 56 59
25 27 28 30 34 37 39 42 47 52 57 61 66 71 75 83 88 89 87 82 79 76 72 70 70 67 62 56 59 60 62 63 64 64 69 70 67 66 64 61 59 59 58 59
24 22 23 25 28 31 31 37 41 45 46 52 59 64 72 76 81 84 84 80 75 84 80 74 68 62 61 61 63 64 66 67 69 70 70 66 65 64 62 56 52 54 57 59
25 30 30 29 28 30 30 32 37 41 46 53 61 64 72 77 83 83 80 79 83 79 69 68 65 62 64 66 70 71 71 71 71 67 65 61 61 59 54 46 47 49 51 54
24 27 30 35 38 40 42 43 45 47 49 53 58 64 69 74 78 78 76 75 72 69 67 66 63 64 66 68 69 68 67 62 60 59 59 56 57 51 47 49 50 51 56 61
31 36 39 41 42 42 43 43 42 45 50 54 57 59 59 61 64 65 67 68 68 67 68 67 65 65 67 66 60 57 59 57 55 55 55 54 53 51 50 51 57 61 63 66
27 34 43 44 48 48 48 50 52 53 54 53 51 51 51 52 55 59 62 64 62 63 63 62 62 60 60 56 57 59 59 56 58 52 55 52 49 52 55 61 64 68 68 70
34 34 39 37 37 38 41 43 43 41 41 41 41 42 45 48 51 53 55 54 53 53 56 59 58 58 59 61 62 61 59 56 54 51 55 57 56 56 61 66 69 71 74 76
28 28 36 39 38 38 38 37 36 37 39 41 42 45 46 47 48 51 51 50 51 55 57 57 59 60 60 62 62 58 58 59 61 61 64 60 64 67 70 71 71 73 78 82
14 23 21 24 27 29 30 31 32 36 39 40 41 46 48 48 48 49 51 53 54 57 59 59 59 59 56 57 57 57 60 61 60 61 62 65 69 74 77 79 82 85 86 84

GFSNW_250_spd_060.txt.gz
Wind_Speed
74 75 75 77 78 85 87 90 86 90 100 102 84 74 68 75 76 74 76 75 71 66 62 59 56 51 54 51 45 44 40 36 30 30 31 32 32 31 30 34 32 21 27 31
73 73 76 75 77 78 83 85 86 94 102 94 78 76 75 79 80 76 77 77 73 69 66 63 60 57 55 51 47 43 43 36 32 32 34 32 32 32 33 32 32 26 22 35
68 73 74 73 76 77 78 83 85 96 91 80 78 81 79 82 83 80 76 75 74 72 67 62 61 60 56 53 50 45 43 38 34 35 37 33 31 33 35 34 33 32 29 30
64 67 70 70 73 75 75 75 75 85 80 77 75 76 78 84 88 82 79 77 73 71 68 66 64 60 57 55 53 48 44 38 38 39 37 33 33 37 36 34 34 32 36 32
61 64 66 67 69 71 67 65 70 77 78 78 75 79 79 84 89 85 78 77 78 74 71 68 66 62 59 56 54 48 44 40 40 39 38 37 35 39 38 36 36 36 38 35
56 60 63 66 67 62 54 60 69 73 75 76 77 79 82 85 90 89 83 82 82 77 74 72 66 62 60 57 54 50 45 42 42 42 40 36 38 40 39 38 37 36 39 37
52 54 58 62 58 48 54 62 68 69 67 73 74 79 87 92 89 90 87 83 80 77 77 71 70 63 60 57 55 50 46 43 43 41 40 35 42 41 43 38 37 39 43 33
47 49 52 54 50 51 53 60 66 66 69 80 81 81 90 97 97 96 89 86 84 85 80 71 69 65 59 56 55 52 49 47 44 40 41 38 39 45 44 43 40 46 38 36
42 44 47 50 48 51 54 60 64 62 69 79 81 85 90 95 95 97 92 89 87 85 78 73 67 62 59 57 54 52 50 48 44 42 43 37 42 45 47 49 45 48 41 38
39 42 46 46 48 53 57 61 61 60 68 72 77 81 88 94 97 97 96 92 90 86 81 74 68 63 60 57 53 53 50 49 43 45 41 37 43 47 48 47 52 46 47 42
38 41 44 47 51 55 59 59 58 58 67 71 78 84 87 95 99 99 94 97 93 87 80 73 68 63 60 57 56 53 53 49 45 44 41 35 46 48 48 49 51 47 43 42
38 41 45 48 52 56 57 55 56 57 62 68 76 84 91 94 99 99 96 91 93 85 80 75 71 68 63 60 58 55 50 47 45 43 41 45 48 51 50 48 44 43 44 44
38 41 44 48 51 51 51 52 52 54 63 67 75 84 88 96 102 100 98 96 90 83 79 79 76 70 65 61 57 56 52 50 49 49 48 50 51 51 47 43 43 45 45 45
36 40 42 45 46 47 48 49 51 55 61 67 76 83 88 96 99 99 97 92 87 84 81 79 74 70 65 60 57 52 53 51 48 47 48 51 50 49 46 47 47 48 51 50
34 37 39 40 41 44 45 45 47 52 57 63 68 80 88 94 96 100 97 91 84 80 78 75 73 70 66 61 58 53 52 51 51 48 53 53 52 52 50 51 51 53 54 55
35 36 36 37 38 38 39 42 48 52 55 61 68 80 86 89 93 101 100 92 86 80 74 71 69 68 66 61 57 53 52 52 53 51 53 52 52 54 56 56 56 57 59 59
29 30 32 35 37 39 42 48 51 52 56 61 66 74 79 82 90 98 97 92 84 78 74 68 66 65 65 61 51 53 53 53 53 53 54 55 57 57 59 59 61 62 63 64
25 25 26 29 32 35 39 42 45 48 53 58 64 73 79 79 86 94 99 92 85 80 74 71 67 65 60 52 50 55 56 56 57 58 57 58 60 60 61 62 63 65 65 67
24 25 26 27 28 27 31 35 38 43 48 51 57 62 64 66 78 89 93 91 84 79 73 72 69 61 52 51 56 60 61 61 61 60 60 61 62 63 64 66 68 70 70 71
20 19 19 21 24 26 30 33 38 43 47 50 53 61 72 75 84 91 92 90 83 81 77 76 69 62 61 60 61 63 64 63 63 64 63 66 67 67 69 70 74 74 72 65
23 26 28 27 26 25 25 26 30 35 37 43 52 64 76 87 88 92 92 91 84 82 80 79 73 68 69 66 65 64 65 65 66 66 67 67 69 72 73 75 74 72 70 65
23 24 25 26 27 30 32 33 32 33 35 43 52 59 67 64 64 72 77 83 85 84 82 81 78 75 74 71 69 69 69 68 68 68 70 72 73 74 74 74 73 72 69 63
23 27 27 28 30 32 33 36 37 40 40 43 49 55 61 64 61 67 74 81 84 83 82 80 79 75 72 70 69 69 70 72 73 73 72 72 74 75 76 73 67 66 63 60
20 22 27 27 28 31 32 34 37 42 46 51 57 63 63 62 62 66 72 76 79 81 80 78 75 74 71 71 72 73 74 74 73 75 74 76 77 74 72 67 65 61 62 64
23 25 26 28 28 31 34 35 38 41 44 48 51 53 54 57 60 65 67 72 75 75 74 73 74 74 73 74 73 72 73 74 76 75 75 75 70 66 65 67 66 61 64 67
20 22 27 27 29 29 31 32 33 34 35 38 42 45 47 50 53 55 60 64 67 69 71 72 73 73 74 75 74 72 75 76 76 75 71 69 68 68 69 67 68 70 72 75
22 21 20 22 24 24 26 28 29 31 33 35 38 40 42 45 47 51 55 59 62 64 67 69 71 73 75 72 72 75 74 72 71 70 69 70 70 72 70 68 68 71 74 78

GFSNW_250_spd_063.txt.gz
Wind_Speed
74 75 76 76 75 78 81 82 79 87 90 93 86 70 67 79 83 81 75 73 68 65 65 62 61 56 58 60 61 52 43 41 38 42 37 32 27 27 30 30 30 31 26 26
71 73 75 76 77 76 78 76 77 87 90 81 77 64 69 77 84 79 76 76 71 68 69 67 61 60 56 63 61 51 45 42 43 44 41 34 27 30 31 31 31 32 29 31
68 70 73 76 76 77 76 73 72 79 75 78 75 69 71 77 80 78 77 75 73 71 74 73 66 64 57 58 59 55 48 48 48 47 42 33 29 33 33 31 32 33 32 33
66 67 71 74 76 75 77 67 63 63 62 70 76 70 72 76 78 80 78 77 74 72 75 78 75 66 64 59 57 58 52 50 53 50 41 32 33 37 36 33 33 33 34 35
64 64 66 68 70 72 73 53 54 57 61 72 73 71 73 80 81 82 77 76 79 77 74 79 79 74 73 70 65 65 57 52 53 50 43 34 35 39 38 35 35 33 36 37
61 63 66 69 67 69 59 44 56 59 62 69 62 68 75 81 83 82 82 86 82 78 78 78 79 76 75 70 72 66 60 55 54 48 46 38 34 43 39 39 37 35 35 39
56 59 61 63 64 56 47 49 58 59 61 65 65 72 80 81 85 85 87 90 88 83 80 77 77 74 73 71 70 67 61 58 55 50 47 39 45 42 41 40 37 37 37 39
49 51 55 57 56 54 49 52 54 57 61 64 58 69 77 86 95 99 96 93 90 87 83 83 77 73 73 72 70 66 62 59 55 51 47 42 43 45 44 41 40 42 37 38
43 46 48 50 52 50 50 54 55 61 62 61 65 72 82 89 94 94 98 100 93 87 87 83 78 74 68 70 70 68 64 61 56 51 47 42 47 50 48 44 40 44 37 40
38 41 44 46 48 49 53 54 58 60 59 63 62 69 81 88 95 97 98 97 92 94 91 85 80 75 72 68 66 66 63 61 56 52 47 46 48 52 51 41 50 43 42 43
36 40 43 45 47 49 54 56 59 59 60 60 58 70 79 87 94 99 96 100 99 97 94 85 80 75 70 70 66 64 63 61 56 53 48 45 50 56 48 48 48 49 44 42
34 37 40 43 47 54 58 59 57 60 61 56 60 70 78 85 91 99 103 98 97 94 93 88 83 77 73 67 66 66 63 59 56 50 47 49 52 52 51 50 53 48 46 44
30 35 39 43 50 54 54 55 55 59 58 56 62 69 77 85 90 96 99 104 99 98 95 93 89 83 79 72 66 64 61 59 55 51 49 50 51 51 51 52 56 48 48 48
33 37 41 48 51 51 53 52 56 56 55 55 60 69 76 84 89 93 96 102 101 99 98 92 87 81 77 71 66 63 61 59 54 50 51 55 53 55 55 55 54 52 50 51
37 42 47 48 49 53 54 57 56 55 56 55 60 65 73 82 88 88 95 99 94 93 93 88 81 77 75 70 69 63 63 60 57 57 60 61 59 60 56 55 55 54 53 53
35 39 44 46 48 49 51 49 45 46 48 52 56 61 68 78 83 85 92 95 94 94 91 84 81 78 74 69 64 64 65 62 61 60 60 57 57 58 57 57 57 57 55 54
32 35 38 40 42 41 39 43 46 47 48 49 54 59 65 71 76 80 87 90 91 89 89 85 82 78 73 69 63 68 68 65 62 61 60 60 59 58 58 59 60 59 57 56
29 30 30 32 34 38 41 41 41 42 43 46 49 56 59 63 72 76 81 85 89 83 81 79 76 72 70 67 66 71 67 67 65 65 63 61 60 63 62 63 61 59 58 60
28 27 26 26 28 29 29 31 33 37 39 42 46 49 54 59 67 73 79 86 86 82 79 77 75 71 66 64 72 71 71 69 67 66 62 64 65 66 65 63 62 62 62 64
28 28 28 27 26 27 28 28 30 33 34 37 40 42 46 51 64 73 76 85 81 81 79 78 73 70 70 69 66 68 69 69 70 70 68 67 68 67 67 67 65 65 66 68
26 26 26 27 30 31 30 30 32 33 33 34 35 40 43 50 62 69 73 76 74 76 78 78 74 72 68 65 67 66 67 68 68 68 68 69 69 69 69 69 69 69 71 72
20 20 20 22 23 26 29 31 33 33 34 36 41 40 46 53 63 68 72 76 72 74 79 80 77 73 72 71 69 68 67 66 66 66 67 68 69 70 71 71 73 74 75 76
19 20 21 23 25 26 30 30 26 33 37 41 43 48 53 59 65 70 77 76 76 77 80 79 79 78 77 74 72 72 71 71 70 71 71 73 74 75 75 76 77 79 79 80
17 18 19 19 20 20 20 22 30 36 39 41 44 47 52 55 62 68 68 70 75 78 76 80 81 81 79 78 77 77 77 75 76 76 76 77 78 80 80 80 82 83 84 84
16 15 17 17 16 19 23 27 29 32 35 39 41 42 46 52 52 53 56 59 66 73 79 81 81 82 82 82 81 80 81 79 78 78 80 82 84 85 85 84 84 83 83 85
16 17 17 18 19 19 23 27 30 29 29 33 35 37 39 42 43 43 44 47 57 71 73 76 79 81 81 82 82 82 82 81 82 82 83 85 86 87 87 87 87 87 84 84
18 20 16 19 20 20 20 19 21 24 26 27 28 30 32 35 38 41 44 48 53 61 68 72 74 77 80 82 83 84 84 85 85 85 86 88 87 88 90 90 87 84 82 79

GFSNW_250_spd_066.txt.gz
Wind_Speed
71 72 72 73 74 75 73 73 72 76 79 74 71 68 68 66 70 75 79 80 80 74 77 77 71 62 59 58 55 56 53 51 49 45 46 36 41 39 35 30 24 20 22 24
69 69 70 71 72 72 71 68 69 72 75 63 63 67 70 65 74 80 75 76 80 77 76 75 69 62 65 63 59 52 58 56 52 47 42 35 41 39 40 32 26 26 23 27
68 68 69 71 73 74 75 71 69 67 62 55 59 64 66 64 72 78 76 75 79 82 80 73 67 66 67 67 57 56 61 61 51 47 49 44 41 43 42 34 31 32 28 28
67 68 70 70 72 74 77 70 58 60 57 52 54 62 63 61 71 76 80 75 74 78 80 74 69 69 65 68 63 59 59 56 57 53 48 43 44 45 45 36 32 34 30 30
64 66 68 69 73 75 78 65 56 57 53 61 60 59 53 62 75 78 79 76 72 78 83 75 76 74 67 70 66 62 63 55 59 60 52 46 45 48 44 39 36 36 34 34
63 64 67 70 72 74 75 58 59 53 54 56 58 57 56 65 75 77 79 77 79 79 81 82 76 69 67 73 68 66 61 61 60 50 54 54 48 48 46 41 39 37 37 37
60 61 63 65 68 70 60 53 57 55 59 57 50 61 59 62 72 80 80 86 83 76 85 78 76 76 75 80 71 71 65 58 59 57 58 49 49 51 47 44 42 41 39 39
55 58 60 59 61 63 54 54 57 50 51 55 58 61 59 62 74 77 82 84 76 84 81 83 87 79 79 84 76 68 70 58 53 60 59 56 53 54 50 47 43 43 42 41
51 54 57 58 60 57 52 54 52 50 54 55 59 59 60 65 67 80 79 83 91 85 87 87 87 78 76 84 79 72 72 71 62 59 58 54 54 56 51 48 40 48 45 44
43 48 51 54 55 53 52 52 51 51 51 59 61 59 61 65 71 79 83 86 92 85 92 90 83 77 77 79 79 78 73 70 68 66 63 60 56 57 57 49 49 52 48 45
36 39 43 47 49 50 52 49 51 52 54 59 60 62 63 68 71 77 78 90 85 82 91 89 79 77 73 73 75 77 78 76 73 72 69 60 57 58 55 54 59 52 48 48
32 34 37 40 45 48 50 51 53 56 59 61 59 62 65 67 74 79 86 83 86 81 87 84 81 79 77 74 75 75 71 71 70 68 61 59 60 62 63 61 57 55 51 50
26 28 34 38 43 47 50 52 52 56 60 59 62 57 62 65 71 75 78 79 80 84 86 86 86 85 77 75 72 75 70 70 70 70 65 63 63 65 62 62 61 57 52 53
23 29 34 38 43 48 52 52 55 59 57 55 57 58 54 57 66 73 75 80 85 87 91 90 86 84 81 77 76 76 72 70 70 66 64 61 61 62 64 63 59 55 55 58
26 30 35 40 44 48 53 55 56 56 54 55 54 48 49 57 62 69 74 79 82 88 92 85 83 84 86 82 76 69 68 69 70 64 63 63 63 63 61 62 60 59 60 61
30 35 39 42 46 49 50 54 54 52 50 47 47 49 51 55 59 65 73 80 84 94 77 74 82 86 85 80 71 72 69 68 68 66 64 63 62 62 63 64 65 63 61 65
29 32 36 41 43 44 46 44 43 40 44 45 49 49 49 52 57 63 73 79 79 81 80 81 82 84 84 82 72 72 73 73 72 67 64 63 63 66 65 67 68 66 64 65
24 27 30 32 35 38 40 37 37 39 42 44 44 46 48 50 51 59 70 74 81 81 86 81 85 86 82 77 77 78 80 77 72 68 66 67 68 65 67 69 69 67 65 65
27 27 28 30 32 33 34 36 38 40 40 41 42 42 43 45 46 54 63 70 73 75 72 74 81 84 83 81 82 82 77 73 70 70 68 71 68 68 68 68 68 67 67 69
29 29 29 30 31 31 31 32 33 34 33 34 35 34 35 37 43 47 53 61 64 69 69 71 77 83 83 77 78 78 77 73 73 73 69 69 71 72 71 70 70 70 73 73
26 27 29 29 31 32 32 32 31 31 31 29 28 29 31 37 42 43 47 55 62 65 66 70 78 83 73 77 77 78 77 75 74 71 70 70 71 72 72 74 73 73 75 75
23 25 26 27 29 31 31 30 30 27 26 28 29 31 34 38 42 42 47 53 61 63 66 66 70 75 79 80 78 77 76 74 71 69 70 72 73 74 75 77 76 77 79 81
16 17 19 21 23 24 25 26 27 27 30 30 29 32 36 37 37 40 45 50 51 52 56 60 69 76 77 76 76 75 73 71 71 72 74 74 74 75 75 77 78 79 79 79
15 14 15 15 16 18 21 20 21 26 27 30 31 30 33 35 36 38 41 47 50 55 55 58 64 71 75 76 75 75 73 73 73 74 74 75 76 77 77 77 77 79 80 82
15 13 11 13 15 16 16 17 20 24 29 30 26 25 26 27 32 37 40 42 43 50 56 57 60 66 71 74 76 75 75 76 76 76 77 78 78 78 80 81 83 84 86 87
15 14 12 12 13 15 17 19 21 24 23 22 21 23 25 26 29 30 33 40 42 45 49 51 55 62 69 74 77 77 78 79 79 79 81 82 83 84 85 87 88 89 91 93
18 16 11 11 12 14 15 16 18 21 20 18 16 16 16 16 17 23 30 35 38 42 46 50 55 61 67 72 76 77 79 82 85 86 87 89 90 90 90 92 93 95 96 97

GFSNW_250_spd_069.txt.gz
Wind_Speed
69 70 70 71 72 74 76 75 69 72 75 68 62 54 64 68 57 64 75 76 73 69 68 67 73 68 68 69 66 63 59 55 52 53 43 44 44 34 37 35 35 31 29 24
66 66 67 67 69 70 72 71 68 69 70 55 50 54 58 58 49 60 71 70 71 71 68 68 69 64 68 67 64 61 62 55 58 55 48 43 45 38 37 38 36 31 31 25
64 64 65 65 67 68 71 72 67 63 56 50 49 55 55 51 45 56 69 69 67 72 69 64 69 66 66 64 61 64 66 62 59 53 50 45 44 44 39 34 36 34 36 30
64 64 64 65 66 68 73 71 58 57 48 45 54 54 52 49 49 55 67 68 65 65 67 64 69 72 71 66 65 64 63 60 59 53 52 51 48 44 41 36 42 38 39 37
62 61 62 63 64 67 72 63 51 53 50 51 54 53 49 47 51 55 64 68 66 66 67 65 70 78 76 70 67 64 64 62 63 57 55 53 50 46 43 40 41 41 40 38
54 55 57 59 63 67 67 56 48 46 41 46 50 45 50 54 47 53 61 70 70 67 67 71 70 78 78 73 66 60 63 64 67 62 57 59 50 44 44 45 43 46 43 42
57 58 58 59 62 66 67 55 52 45 45 47 41 52 52 52 51 59 62 63 60 58 76 74 69 74 77 75 66 65 69 68 69 60 62 52 43 50 50 51 47 42 46 43
59 60 60 62 64 67 68 56 53 48 46 48 51 53 56 56 59 59 57 56 61 80 74 73 74 79 79 78 74 68 73 71 72 67 59 55 50 51 49 49 50 48 47 45
54 56 58 60 62 65 65 51 58 51 45 49 57 64 63 58 59 62 54 59 67 76 73 79 81 75 76 79 73 71 74 70 73 66 61 53 51 53 51 51 47 50 50 50
48 51 54 56 59 59 56 53 53 46 42 54 60 58 61 63 66 61 62 65 71 71 75 77 75 68 72 75 70 73 71 73 71 65 60 59 54 59 60 55 52 60 56 53
38 42 45 51 55 55 54 52 48 44 45 54 55 61 61 64 63 60 64 72 66 65 73 74 75 71 72 72 72 75 73 76 73 69 64 55 55 58 53 53 56 59 57 55
28 34 40 44 48 49 47 50 47 47 49 51 55 58 61 60 60 61 65 60 63 65 71 70 74 72 75 74 72 75 72 68 75 72 62 62 64 67 63 61 60 60 54 57
24 28 32 36 39 41 44 46 45 45 48 52 57 59 57 57 57 57 55 54 57 62 69 71 78 80 72 66 68 71 71 71 79 74 66 66 66 64 66 68 66 65 62 62
20 23 26 30 33 38 42 42 42 44 49 49 53 53 50 45 46 49 49 54 58 64 71 77 79 75 64 68 73 73 73 73 72 77 74 70 66 59 69 67 70 68 67 64
21 23 26 29 32 36 40 42 44 48 47 48 50 47 49 51 47 49 48 53 58 65 71 73 73 68 67 71 75 75 73 71 71 71 74 73 69 71 67 66 72 71 67 62
20 23 26 29 32 36 39 43 47 44 43 44 43 45 43 44 46 47 48 54 55 62 68 69 66 70 68 74 71 71 70 69 66 65 72 75 74 71 70 70 70 70 67 63
17 20 24 27 30 32 36 37 34 36 39 40 43 43 43 44 44 45 48 52 55 58 63 61 68 74 72 73 72 72 73 74 71 65 67 72 73 70 70 71 70 69 68 63
17 19 22 26 28 30 31 32 33 35 35 38 41 44 45 45 45 43 44 47 51 56 59 64 70 73 74 74 80 80 78 75 76 71 68 71 69 69 69 69 70 68 66 65
19 19 22 25 27 28 32 33 35 38 41 42 42 41 42 42 41 39 40 43 48 54 58 68 71 76 69 69 74 75 77 75 72 71 70 72 76 74 70 70 70 66 66 65
26 28 27 29 31 33 35 36 36 35 36 37 37 36 35 32 32 32 36 41 47 52 58 65 67 71 68 68 73 79 83 81 78 77 75 75 75 70 68 69 69 69 70 70
25 24 27 30 31 33 34 35 35 34 32 30 30 29 29 29 28 30 35 39 43 49 54 60 60 59 58 65 71 77 82 83 82 79 76 77 76 73 71 72 76 76 75 76
20 23 26 28 30 30 30 29 28 27 25 27 28 29 29 29 29 31 35 36 40 45 50 54 51 55 56 60 70 72 77 81 83 82 82 80 79 75 72 73 76 76 76 78
22 21 19 18 19 20 21 22 24 26 26 27 28 29 30 26 29 33 31 34 39 44 48 50 51 54 55 62 73 76 75 77 80 80 80 81 82 81 80 79 78 78 77 78
17 18 19 19 19 19 20 20 21 22 24 25 26 24 21 28 29 30 28 29 31 36 40 45 48 50 53 61 70 77 79 79 79 81 81 82 83 84 83 82 81 78 78 80
18 16 14 14 14 16 18 19 20 21 22 20 18 16 18 24 25 24 24 25 28 35 41 42 43 45 50 56 64 73 77 78 79 80 81 82 84 85 84 83 81 82 82 84
18 17 15 14 14 14 16 17 18 17 17 12 12 14 20 23 22 22 24 24 25 32 34 34 38 43 47 51 57 62 69 76 80 82 82 83 85 86 86 86 85 84 85 87
19 19 16 14 15 13 11 12 14 9 8 12 12 9 8 11 14 14 15 16 16 22 29 31 33 40 45 49 54 61 67 73 78 81 83 85 86 87 87 87 87 88 89 90

GFSNW_250_spd_072.txt.gz
Wind_Speed
67 67 67 68 69 71 75 78 74 71 77 77 66 63 69 74 78 74 62 67 74 73 71 76 74 68 68 70 71 67 69 67 66 63 65 61 55 51 50 42 41 29 30 30
64 65 65 67 68 70 73 75 70 67 71 59 60 63 69 69 70 66 59 63 68 72 65 69 64 63 66 65 64 59 65 62 63 64 61 56 52 52 49 44 42 31 30 33
62 62 63 64 66 68 71 73 67 59 58 56 58 56 62 61 63 58 58 60 65 65 62 63 65 59 63 65 61 60 61 60 60 55 56 59 59 58 54 47 43 34 31 31
59 59 60 60 63 67 73 72 58 53 53 53 58 60 60 58 59 55 58 57 63 63 58 60 62 60 61 60 64 63 60 57 59 57 59 62 59 58 57 48 43 41 36 31
57 58 57 58 59 63 71 65 52 52 53 56 56 54 50 53 54 50 54 56 58 57 55 57 62 62 62 61 64 66 64 56 59 58 61 64 62 58 59 56 41 42 36 31
53 55 56 57 60 64 64 57 51 49 49 53 51 43 50 51 52 49 53 55 49 53 55 62 64 66 65 63 66 68 65 64 62 58 62 65 60 59 59 55 48 43 37 40
49 49 51 54 58 59 60 48 50 46 43 45 41 50 49 49 49 48 53 52 50 55 59 61 63 68 68 67 67 69 70 66 65 65 68 66 54 61 60 54 49 45 40 44
54 56 57 57 58 60 58 47 51 40 40 43 48 49 48 49 47 47 54 54 51 54 58 60 63 67 68 71 66 73 67 68 68 68 69 63 61 59 58 54 50 46 41 48
52 55 58 60 62 63 59 50 51 45 45 41 51 52 52 51 49 54 52 57 56 52 55 58 59 64 66 73 70 75 72 72 70 66 64 62 58 60 58 59 51 48 48 53
49 52 54 57 59 60 57 51 53 50 49 49 53 45 48 54 52 56 56 59 60 53 51 57 60 64 69 70 66 74 76 74 68 63 64 62 59 63 65 64 52 57 56 55
44 47 49 52 55 55 53 52 54 54 45 50 50 51 49 54 55 54 60 63 56 48 45 54 61 62 66 69 68 69 75 76 69 66 66 62 64 64 70 64 61 62 61 55
35 40 44 47 48 48 48 49 52 52 46 49 52 56 59 62 61 63 64 57 59 49 47 51 61 65 68 68 74 73 73 73 70 65 67 65 68 67 66 66 65 66 62 52
26 29 35 39 41 43 46 51 49 45 40 43 54 59 63 64 64 63 60 60 55 44 45 53 60 66 70 74 73 70 68 71 72 70 66 64 69 70 69 69 66 66 64 64
19 23 27 31 35 39 44 46 45 45 41 44 50 63 68 61 58 58 60 59 47 43 48 55 60 66 68 69 68 68 68 71 70 70 69 68 69 71 72 69 64 66 65 64
16 20 23 26 31 36 38 39 44 44 43 46 52 53 55 55 54 55 51 44 42 48 49 53 60 61 66 66 66 65 65 68 73 72 76 72 69 73 69 68 66 64 68 72
15 19 22 25 28 31 35 40 43 46 45 50 48 45 44 44 46 43 38 41 46 47 51 52 56 62 65 64 64 71 71 75 77 76 74 73 70 75 73 69 73 74 71 67
17 20 23 25 27 29 32 35 37 38 41 39 38 42 44 41 35 36 42 47 47 47 48 50 54 58 63 68 67 72 69 68 73 74 74 76 69 73 76 73 72 73 72 73
19 20 22 26 28 30 32 33 34 32 29 30 35 34 32 37 41 43 44 43 42 40 42 46 50 56 62 63 58 65 66 66 71 74 73 73 72 69 75 79 78 75 71 68
23 23 23 24 26 30 31 31 29 30 31 36 38 41 42 41 40 37 35 36 37 40 42 44 45 51 53 59 58 62 65 68 73 75 73 72 71 72 74 77 78 79 75 70
29 30 29 30 31 34 35 37 38 38 38 38 37 36 34 31 31 30 32 34 35 35 38 41 45 49 55 58 65 71 73 73 76 77 75 74 73 73 75 77 77 77 76 75
29 32 36 36 37 36 33 32 32 32 32 31 30 30 28 29 29 30 31 30 31 34 36 36 39 45 51 58 65 69 73 74 76 77 77 75 73 72 73 74 74 74 73 74
24 24 27 27 27 28 29 28 27 26 27 28 26 24 25 25 25 25 27 29 33 36 34 33 38 43 47 52 52 54 66 72 76 78 77 76 74 73 74 74 74 75 76 76
28 26 25 25 25 23 22 23 23 22 22 21 22 24 24 24 24 26 27 32 37 33 31 31 35 41 45 50 53 60 69 66 72 76 77 75 73 75 76 77 77 79 81 82
26 27 25 26 24 23 21 20 18 18 18 18 19 20 21 22 23 27 30 33 30 33 32 30 32 37 42 47 55 62 65 68 70 73 76 78 77 78 81 82 82 82 83 85
20 19 22 22 22 22 22 21 20 19 18 16 14 13 15 19 20 20 23 24 26 30 32 32 31 33 35 39 47 55 61 62 69 72 74 78 80 82 85 87 88 88 88 89
20 19 18 19 19 19 19 18 16 14 13 12 12 14 16 17 14 15 17 17 20 23 25 25 27 30 34 38 43 48 55 61 64 69 75 76 79 83 86 88 90 91 93 94
21 19 18 17 16 16 15 13 13 12 12 12 13 13 13 12 8 8 11 13 16 18 19 20 22 27 31 35 41 46 53 59 63 68 71 75 81 83 85 87 89 90 92 92

GFSNW_250_spd_075.txt.gz
Wind_Speed
67 67 68 68 68 70 72 72 67 64 75 76 68 63 69 72 77 81 78 74 79 82 79 78 77 75 81 89 91 92 91 91 90 88 82 78 69 66 61 56 49 46 42 36
62 62 61 62 64 67 69 73 69 68 75 65 58 61 62 67 73 76 74 67 71 82 75 67 69 68 74 75 76 75 78 70 72 73 65 62 63 63 62 56 52 48 37 43
57 58 59 60 62 65 68 67 65 59 60 54 57 58 62 64 68 68 66 63 67 73 69 60 63 66 70 70 69 69 72 64 58 55 57 58 61 61 59 57 53 49 40 49
54 55 57 60 61 64 68 62 56 52 49 52 59 60 61 60 62 65 63 61 62 68 61 52 58 63 62 63 66 66 63 56 54 53 63 66 63 64 61 58 53 50 48 48
55 56 57 59 61 65 67 54 51 49 51 56 55 54 54 56 60 62 60 63 61 57 54 48 53 57 57 58 61 63 58 54 53 53 61 64 63 59 57 54 52 53 52 50
52 53 55 57 59 63 62 49 49 49 50 56 54 49 53 53 55 58 57 58 52 52 55 46 50 52 54 59 61 57 54 53 54 55 59 61 58 53 57 55 56 57 51 53
44 45 47 51 55 58 55 46 45 44 46 50 49 53 55 54 56 59 59 52 53 56 48 44 45 51 53 54 58 58 59 57 59 62 66 60 52 62 59 60 59 58 56 59
47 49 49 50 52 54 50 44 44 41 43 48 52 51 51 53 54 55 55 50 55 50 45 43 45 53 54 53 59 64 61 59 62 65 68 60 61 62 63 59 58 58 56 60
53 55 56 57 57 58 54 49 45 37 41 43 50 50 52 52 53 54 55 51 52 48 43 41 46 51 56 60 59 60 58 59 64 65 68 63 64 67 67 62 57 59 60 59
51 53 55 59 61 60 57 53 47 40 41 46 49 49 53 55 52 53 56 52 50 48 40 40 46 53 60 61 59 59 64 65 64 68 69 67 68 68 65 61 57 66 64 58
44 47 50 54 56 58 56 54 52 46 46 48 51 52 51 52 51 51 57 52 45 41 37 42 47 54 60 62 62 63 70 69 67 70 69 65 68 70 66 65 68 67 63 62
40 42 45 48 50 51 50 49 51 50 52 55 53 54 56 57 56 57 56 51 46 42 39 40 48 54 60 64 65 69 70 70 70 69 69 73 73 72 69 68 69 65 64 64
32 34 37 41 43 43 43 49 53 51 52 56 58 54 59 60 52 49 49 48 46 41 39 39 46 51 57 62 67 72 70 69 71 70 75 77 75 74 72 69 67 64 64 66
25 27 29 32 36 39 42 49 50 48 52 56 56 62 57 58 55 53 55 52 50 48 42 39 45 51 56 63 68 70 71 71 76 71 77 77 76 75 75 71 69 69 66 66
19 22 24 28 32 35 43 44 43 45 49 56 60 59 62 64 60 59 54 54 54 54 47 41 46 52 57 61 66 70 71 69 70 68 72 73 76 75 74 72 69 68 69 70
15 19 22 26 29 32 30 33 39 43 49 51 58 60 65 64 62 60 58 58 58 57 48 46 47 54 57 59 62 69 70 66 66 68 66 75 76 74 75 73 70 70 68 70
15 20 22 25 28 33 40 43 44 43 45 42 48 59 61 58 56 55 56 58 56 51 44 41 44 53 55 55 59 65 66 66 64 67 68 75 80 79 78 76 72 71 71 73
17 21 25 28 30 32 32 34 37 37 34 34 38 41 47 52 51 50 46 42 38 32 34 36 41 50 51 51 55 61 62 65 62 64 68 68 77 83 80 79 75 74 73 77
19 21 24 26 26 27 29 32 32 33 31 32 36 40 41 40 39 39 36 34 35 37 41 46 50 51 51 53 54 56 59 61 60 64 70 70 73 85 84 83 81 79 75 73
26 25 26 29 29 28 29 30 31 33 35 35 32 31 34 35 35 36 35 35 35 38 41 41 40 43 44 47 50 52 58 59 61 65 70 73 75 82 88 86 84 80 79 76
32 32 32 33 33 33 34 33 32 33 33 34 35 34 33 34 34 34 34 34 35 36 38 38 39 42 42 44 49 52 58 62 65 70 75 75 75 81 86 87 84 81 80 79
27 30 31 30 30 30 31 32 30 29 28 29 29 30 31 31 31 32 32 33 34 36 35 35 35 36 40 45 48 49 54 59 63 68 73 76 77 79 83 85 85 84 81 80
30 30 30 30 30 29 28 27 28 29 30 29 28 28 28 27 27 27 27 28 29 31 30 32 32 36 40 42 44 44 54 58 58 62 68 72 74 74 77 81 82 82 82 82
30 31 32 31 29 29 29 28 28 27 25 25 24 23 24 24 23 23 21 25 26 28 27 22 28 31 32 36 40 43 49 52 53 56 62 68 72 73 76 80 80 80 82 83
27 28 29 30 30 30 29 27 26 25 22 20 18 17 17 17 17 19 20 20 23 24 22 20 22 25 27 28 32 37 43 49 55 60 63 63 70 74 76 78 81 82 83 84
23 21 22 22 22 23 23 21 19 18 16 14 12 12 13 14 14 15 15 18 19 20 21 21 22 23 25 27 30 34 38 44 50 54 58 62 68 74 76 77 80 83 86 87
20 19 18 18 19 18 17 16 14 12 10 9 10 9 10 10 11 15 16 17 18 17 18 19 22 23 24 26 28 31 37 42 49 53 54 56 60 66 73 79 83 85 87 89